<?xml version="1.0" encoding="UTF-8" standalone="no" ?>
<gpx xmlns="http://www.topografix.com/GPX/1/1" xmlns:xsi="http://www.w3.org/2001/XMLSchema-instance" xsi:schemaLocation="http://www.topografix.com/GPX/1/1 http://www.topografix.com/GPX/1/1/gpx.xsd" version="1.1" creator="VisuGPX - https://www.visugpx.com">
  <metadata>
    <name>551_Circuit 67 km Les Herbiers_Les Herbiers édité par cth85.com</name>
    <desc><![CDATA[Circuit de 82 km passanpar:
Les Herbiers
D23 Saint Paul en Pareds
D23 Saint Prouant
D23 Monsireigne
D23 Chavagnes les Redoux
D23 Bazoges en Pareds
D43 su 2 km , à gauche D10
Saint Hilaire du Bois
D10 Saint Martin Lars
D10 Champgillon
D41 Saint Juire Champgillon
D43 Saint Philbert du Pont Charrault
D31 direction Chantonnay su 1,5 km
à droite, Saint Mars des Prés
Puybelliard
la touche, D113E Mouchamps
D48 Les Herbiers
]]></desc>
  </metadata>
  <trk>
    <name><![CDATA[67_551-cth85.com]]></name>
    <extensions>
      <line xmlns="http://www.topografix.com/GPX/gpx_style/0/2">
        <color>0000FF</color>
        <width>4</width>
      </line>
    </extensions>
    <trkseg>
      <trkpt lat="46.86361" lon="-1.0061">
        <ele>120</ele>
        <time>2024-01-09T16:41:11Z</time>
      </trkpt>
      <trkpt lat="46.86336" lon="-1.00638">
        <ele>120</ele>
        <time>2024-01-09T16:41:17Z</time>
      </trkpt>
      <trkpt lat="46.8633" lon="-1.00639">
        <ele>120</ele>
        <time>2024-01-09T16:41:18Z</time>
      </trkpt>
      <trkpt lat="46.86324" lon="-1.00626">
        <ele>119</ele>
        <time>2024-01-09T16:41:20Z</time>
      </trkpt>
      <trkpt lat="46.86271" lon="-1.00663">
        <ele>118</ele>
        <time>2024-01-09T16:41:30Z</time>
      </trkpt>
      <trkpt lat="46.86183" lon="-1.00705">
        <ele>116</ele>
        <time>2024-01-09T16:41:47Z</time>
      </trkpt>
      <trkpt lat="46.86141" lon="-1.00728">
        <ele>116</ele>
        <time>2024-01-09T16:41:54Z</time>
      </trkpt>
      <trkpt lat="46.86095" lon="-1.00768">
        <ele>115</ele>
        <time>2024-01-09T16:42:04Z</time>
      </trkpt>
      <trkpt lat="46.86071" lon="-1.00794">
        <ele>114</ele>
        <time>2024-01-09T16:42:09Z</time>
      </trkpt>
      <trkpt lat="46.85999" lon="-1.00892">
        <ele>112</ele>
        <time>2024-01-09T16:42:27Z</time>
      </trkpt>
      <trkpt lat="46.85979" lon="-1.00924">
        <ele>112</ele>
        <time>2024-01-09T16:42:32Z</time>
      </trkpt>
      <trkpt lat="46.85956" lon="-1.00964">
        <ele>113</ele>
        <time>2024-01-09T16:42:38Z</time>
      </trkpt>
      <trkpt lat="46.85951" lon="-1.00979">
        <ele>113</ele>
        <time>2024-01-09T16:42:40Z</time>
      </trkpt>
      <trkpt lat="46.85879" lon="-1.00946">
        <ele>113</ele>
        <time>2024-01-09T16:42:54Z</time>
      </trkpt>
      <trkpt lat="46.85858" lon="-1.00941">
        <ele>113</ele>
        <time>2024-01-09T16:42:58Z</time>
      </trkpt>
      <trkpt lat="46.85854" lon="-1.00943">
        <ele>113</ele>
        <time>2024-01-09T16:42:58Z</time>
      </trkpt>
      <trkpt lat="46.85846" lon="-1.00942">
        <ele>113</ele>
        <time>2024-01-09T16:43:00Z</time>
      </trkpt>
      <trkpt lat="46.8584" lon="-1.00934">
        <ele>113</ele>
        <time>2024-01-09T16:43:01Z</time>
      </trkpt>
      <trkpt lat="46.85837" lon="-1.00923">
        <ele>113</ele>
        <time>2024-01-09T16:43:03Z</time>
      </trkpt>
      <trkpt lat="46.85838" lon="-1.00917">
        <ele>113</ele>
        <time>2024-01-09T16:43:04Z</time>
      </trkpt>
      <trkpt lat="46.8569" lon="-1.00829">
        <ele>112</ele>
        <time>2024-01-09T16:43:32Z</time>
      </trkpt>
      <trkpt lat="46.85562" lon="-1.00711">
        <ele>108</ele>
        <time>2024-01-09T16:43:59Z</time>
      </trkpt>
      <trkpt lat="46.85539" lon="-1.00693">
        <ele>108</ele>
        <time>2024-01-09T16:44:04Z</time>
      </trkpt>
      <trkpt lat="46.85509" lon="-1.00674">
        <ele>108</ele>
        <time>2024-01-09T16:44:09Z</time>
      </trkpt>
      <trkpt lat="46.85483" lon="-1.00655">
        <ele>108</ele>
        <time>2024-01-09T16:44:14Z</time>
      </trkpt>
      <trkpt lat="46.8546" lon="-1.00641">
        <ele>108</ele>
        <time>2024-01-09T16:44:19Z</time>
      </trkpt>
      <trkpt lat="46.8534" lon="-1.00587">
        <ele>109</ele>
        <time>2024-01-09T16:44:41Z</time>
      </trkpt>
      <trkpt lat="46.85285" lon="-1.00572">
        <ele>110</ele>
        <time>2024-01-09T16:44:51Z</time>
      </trkpt>
      <trkpt lat="46.85261" lon="-1.00556">
        <ele>110</ele>
        <time>2024-01-09T16:44:56Z</time>
      </trkpt>
      <trkpt lat="46.85102" lon="-1.00439">
        <ele>110</ele>
        <time>2024-01-09T16:45:28Z</time>
      </trkpt>
      <trkpt lat="46.85054" lon="-1.0041">
        <ele>111</ele>
        <time>2024-01-09T16:45:37Z</time>
      </trkpt>
      <trkpt lat="46.85025" lon="-1.00397">
        <ele>112</ele>
        <time>2024-01-09T16:45:42Z</time>
      </trkpt>
      <trkpt lat="46.84987" lon="-1.00387">
        <ele>113</ele>
        <time>2024-01-09T16:45:49Z</time>
      </trkpt>
      <trkpt lat="46.84956" lon="-1.00381">
        <ele>113</ele>
        <time>2024-01-09T16:45:55Z</time>
      </trkpt>
      <trkpt lat="46.84918" lon="-1.00379">
        <ele>114</ele>
        <time>2024-01-09T16:46:01Z</time>
      </trkpt>
      <trkpt lat="46.84873" lon="-1.0038">
        <ele>114</ele>
        <time>2024-01-09T16:46:09Z</time>
      </trkpt>
      <trkpt lat="46.84774" lon="-1.00404">
        <ele>116</ele>
        <time>2024-01-09T16:46:27Z</time>
      </trkpt>
      <trkpt lat="46.84773" lon="-1.0041">
        <ele>116</ele>
        <time>2024-01-09T16:46:28Z</time>
      </trkpt>
      <trkpt lat="46.84767" lon="-1.00416">
        <ele>116</ele>
        <time>2024-01-09T16:46:29Z</time>
      </trkpt>
      <trkpt lat="46.84763" lon="-1.00414">
        <ele>116</ele>
        <time>2024-01-09T16:46:30Z</time>
      </trkpt>
      <trkpt lat="46.8476" lon="-1.00409">
        <ele>116</ele>
        <time>2024-01-09T16:46:31Z</time>
      </trkpt>
      <trkpt lat="46.84738" lon="-1.0042">
        <ele>116</ele>
        <time>2024-01-09T16:46:35Z</time>
      </trkpt>
      <trkpt lat="46.84625" lon="-1.00458">
        <ele>112</ele>
        <time>2024-01-09T16:46:56Z</time>
      </trkpt>
      <trkpt lat="46.84571" lon="-1.00469">
        <ele>111</ele>
        <time>2024-01-09T16:47:05Z</time>
      </trkpt>
      <trkpt lat="46.84532" lon="-1.00471">
        <ele>111</ele>
        <time>2024-01-09T16:47:12Z</time>
      </trkpt>
      <trkpt lat="46.84501" lon="-1.00484">
        <ele>111</ele>
        <time>2024-01-09T16:47:18Z</time>
      </trkpt>
      <trkpt lat="46.84496" lon="-1.00493">
        <ele>111</ele>
        <time>2024-01-09T16:47:19Z</time>
      </trkpt>
      <trkpt lat="46.84487" lon="-1.00498">
        <ele>111</ele>
        <time>2024-01-09T16:47:21Z</time>
      </trkpt>
      <trkpt lat="46.84478" lon="-1.00494">
        <ele>112</ele>
        <time>2024-01-09T16:47:23Z</time>
      </trkpt>
      <trkpt lat="46.84474" lon="-1.0049">
        <ele>112</ele>
        <time>2024-01-09T16:47:24Z</time>
      </trkpt>
      <trkpt lat="46.84471" lon="-1.00482">
        <ele>112</ele>
        <time>2024-01-09T16:47:25Z</time>
      </trkpt>
      <trkpt lat="46.84446" lon="-1.00468">
        <ele>113</ele>
        <time>2024-01-09T16:47:30Z</time>
      </trkpt>
      <trkpt lat="46.83871" lon="-1.00422">
        <ele>126</ele>
        <time>2024-01-09T16:49:12Z</time>
      </trkpt>
      <trkpt lat="46.83875" lon="-1.00435">
        <ele>125</ele>
        <time>2024-01-09T16:49:14Z</time>
      </trkpt>
      <trkpt lat="46.83858" lon="-1.00435">
        <ele>126</ele>
        <time>2024-01-09T16:49:17Z</time>
      </trkpt>
      <trkpt lat="46.83853" lon="-1.00435">
        <ele>126</ele>
        <time>2024-01-09T16:49:18Z</time>
      </trkpt>
      <trkpt lat="46.8385" lon="-1.0043">
        <ele>126</ele>
        <time>2024-01-09T16:49:18Z</time>
      </trkpt>
      <trkpt lat="46.8384" lon="-1.00426">
        <ele>127</ele>
        <time>2024-01-09T16:49:20Z</time>
      </trkpt>
      <trkpt lat="46.83612" lon="-1.0041">
        <ele>129</ele>
        <time>2024-01-09T16:50:01Z</time>
      </trkpt>
      <trkpt lat="46.83613" lon="-1.00403">
        <ele>129</ele>
        <time>2024-01-09T16:50:02Z</time>
      </trkpt>
      <trkpt lat="46.83556" lon="-1.004">
        <ele>128</ele>
        <time>2024-01-09T16:50:12Z</time>
      </trkpt>
      <trkpt lat="46.83506" lon="-1.00398">
        <ele>127</ele>
        <time>2024-01-09T16:50:21Z</time>
      </trkpt>
      <trkpt lat="46.83326" lon="-1.00377">
        <ele>126</ele>
        <time>2024-01-09T16:50:53Z</time>
      </trkpt>
      <trkpt lat="46.83152" lon="-1.00367">
        <ele>121</ele>
        <time>2024-01-09T16:51:24Z</time>
      </trkpt>
      <trkpt lat="46.82971" lon="-1.00352">
        <ele>114</ele>
        <time>2024-01-09T16:51:56Z</time>
      </trkpt>
      <trkpt lat="46.82942" lon="-1.00346">
        <ele>113</ele>
        <time>2024-01-09T16:52:01Z</time>
      </trkpt>
      <trkpt lat="46.82918" lon="-1.00337">
        <ele>112</ele>
        <time>2024-01-09T16:52:06Z</time>
      </trkpt>
      <trkpt lat="46.82896" lon="-1.00326">
        <ele>112</ele>
        <time>2024-01-09T16:52:10Z</time>
      </trkpt>
      <trkpt lat="46.8288" lon="-1.00315">
        <ele>112</ele>
        <time>2024-01-09T16:52:13Z</time>
      </trkpt>
      <trkpt lat="46.82843" lon="-1.00277">
        <ele>111</ele>
        <time>2024-01-09T16:52:21Z</time>
      </trkpt>
      <trkpt lat="46.82826" lon="-1.00254">
        <ele>110</ele>
        <time>2024-01-09T16:52:25Z</time>
      </trkpt>
      <trkpt lat="46.82796" lon="-1.00194">
        <ele>109</ele>
        <time>2024-01-09T16:52:34Z</time>
      </trkpt>
      <trkpt lat="46.82784" lon="-1.00163">
        <ele>109</ele>
        <time>2024-01-09T16:52:39Z</time>
      </trkpt>
      <trkpt lat="46.82675" lon="-0.99834">
        <ele>99</ele>
        <time>2024-01-09T16:53:23Z</time>
      </trkpt>
      <trkpt lat="46.82637" lon="-0.99724">
        <ele>95</ele>
        <time>2024-01-09T16:53:38Z</time>
      </trkpt>
      <trkpt lat="46.82619" lon="-0.9969">
        <ele>94</ele>
        <time>2024-01-09T16:53:43Z</time>
      </trkpt>
      <trkpt lat="46.826" lon="-0.99666">
        <ele>92</ele>
        <time>2024-01-09T16:53:48Z</time>
      </trkpt>
      <trkpt lat="46.8258" lon="-0.99653">
        <ele>91</ele>
        <time>2024-01-09T16:53:52Z</time>
      </trkpt>
      <trkpt lat="46.82566" lon="-0.99646">
        <ele>92</ele>
        <time>2024-01-09T16:53:54Z</time>
      </trkpt>
      <trkpt lat="46.82551" lon="-0.99642">
        <ele>92</ele>
        <time>2024-01-09T16:53:57Z</time>
      </trkpt>
      <trkpt lat="46.82422" lon="-0.99623">
        <ele>98</ele>
        <time>2024-01-09T16:54:20Z</time>
      </trkpt>
      <trkpt lat="46.82392" lon="-0.99616">
        <ele>99</ele>
        <time>2024-01-09T16:54:26Z</time>
      </trkpt>
      <trkpt lat="46.82369" lon="-0.99601">
        <ele>101</ele>
        <time>2024-01-09T16:54:30Z</time>
      </trkpt>
      <trkpt lat="46.82358" lon="-0.99589">
        <ele>103</ele>
        <time>2024-01-09T16:54:33Z</time>
      </trkpt>
      <trkpt lat="46.82347" lon="-0.99571">
        <ele>104</ele>
        <time>2024-01-09T16:54:35Z</time>
      </trkpt>
      <trkpt lat="46.82339" lon="-0.99555">
        <ele>106</ele>
        <time>2024-01-09T16:54:38Z</time>
      </trkpt>
      <trkpt lat="46.82317" lon="-0.99495">
        <ele>109</ele>
        <time>2024-01-09T16:54:46Z</time>
      </trkpt>
      <trkpt lat="46.82311" lon="-0.99486">
        <ele>109</ele>
        <time>2024-01-09T16:54:48Z</time>
      </trkpt>
      <trkpt lat="46.82303" lon="-0.99478">
        <ele>109</ele>
        <time>2024-01-09T16:54:49Z</time>
      </trkpt>
      <trkpt lat="46.82252" lon="-0.99449">
        <ele>110</ele>
        <time>2024-01-09T16:54:59Z</time>
      </trkpt>
      <trkpt lat="46.82255" lon="-0.99428">
        <ele>111</ele>
        <time>2024-01-09T16:55:02Z</time>
      </trkpt>
      <trkpt lat="46.82256" lon="-0.99402">
        <ele>112</ele>
        <time>2024-01-09T16:55:05Z</time>
      </trkpt>
      <trkpt lat="46.82255" lon="-0.99372">
        <ele>113</ele>
        <time>2024-01-09T16:55:09Z</time>
      </trkpt>
      <trkpt lat="46.82248" lon="-0.99323">
        <ele>114</ele>
        <time>2024-01-09T16:55:15Z</time>
      </trkpt>
      <trkpt lat="46.82233" lon="-0.99254">
        <ele>117</ele>
        <time>2024-01-09T16:55:24Z</time>
      </trkpt>
      <trkpt lat="46.82206" lon="-0.99108">
        <ele>117</ele>
        <time>2024-01-09T16:55:42Z</time>
      </trkpt>
      <trkpt lat="46.82201" lon="-0.99091">
        <ele>117</ele>
        <time>2024-01-09T16:55:44Z</time>
      </trkpt>
      <trkpt lat="46.82193" lon="-0.99071">
        <ele>116</ele>
        <time>2024-01-09T16:55:47Z</time>
      </trkpt>
      <trkpt lat="46.82182" lon="-0.99055">
        <ele>115</ele>
        <time>2024-01-09T16:55:50Z</time>
      </trkpt>
      <trkpt lat="46.82163" lon="-0.99034">
        <ele>114</ele>
        <time>2024-01-09T16:55:54Z</time>
      </trkpt>
      <trkpt lat="46.81974" lon="-0.98906">
        <ele>106</ele>
        <time>2024-01-09T16:56:31Z</time>
      </trkpt>
      <trkpt lat="46.81762" lon="-0.98767">
        <ele>113</ele>
        <time>2024-01-09T16:57:12Z</time>
      </trkpt>
      <trkpt lat="46.81728" lon="-0.9875">
        <ele>113</ele>
        <time>2024-01-09T16:57:19Z</time>
      </trkpt>
      <trkpt lat="46.81029" lon="-0.98519">
        <ele>105</ele>
        <time>2024-01-09T16:59:26Z</time>
      </trkpt>
      <trkpt lat="46.80976" lon="-0.985">
        <ele>107</ele>
        <time>2024-01-09T16:59:36Z</time>
      </trkpt>
      <trkpt lat="46.80931" lon="-0.9849">
        <ele>110</ele>
        <time>2024-01-09T16:59:44Z</time>
      </trkpt>
      <trkpt lat="46.8091" lon="-0.9849">
        <ele>111</ele>
        <time>2024-01-09T16:59:48Z</time>
      </trkpt>
      <trkpt lat="46.80887" lon="-0.98494">
        <ele>111</ele>
        <time>2024-01-09T16:59:52Z</time>
      </trkpt>
      <trkpt lat="46.80414" lon="-0.98636">
        <ele>105</ele>
        <time>2024-01-09T17:01:18Z</time>
      </trkpt>
      <trkpt lat="46.80372" lon="-0.9865">
        <ele>106</ele>
        <time>2024-01-09T17:01:26Z</time>
      </trkpt>
      <trkpt lat="46.80354" lon="-0.98653">
        <ele>106</ele>
        <time>2024-01-09T17:01:29Z</time>
      </trkpt>
      <trkpt lat="46.80338" lon="-0.98653">
        <ele>106</ele>
        <time>2024-01-09T17:01:32Z</time>
      </trkpt>
      <trkpt lat="46.8032" lon="-0.98647">
        <ele>107</ele>
        <time>2024-01-09T17:01:35Z</time>
      </trkpt>
      <trkpt lat="46.80019" lon="-0.98481">
        <ele>102</ele>
        <time>2024-01-09T17:02:32Z</time>
      </trkpt>
      <trkpt lat="46.79995" lon="-0.98465">
        <ele>101</ele>
        <time>2024-01-09T17:02:37Z</time>
      </trkpt>
      <trkpt lat="46.79973" lon="-0.98443">
        <ele>100</ele>
        <time>2024-01-09T17:02:42Z</time>
      </trkpt>
      <trkpt lat="46.79919" lon="-0.98374">
        <ele>99</ele>
        <time>2024-01-09T17:02:54Z</time>
      </trkpt>
      <trkpt lat="46.79896" lon="-0.98357">
        <ele>97</ele>
        <time>2024-01-09T17:02:59Z</time>
      </trkpt>
      <trkpt lat="46.79871" lon="-0.9835">
        <ele>96</ele>
        <time>2024-01-09T17:03:03Z</time>
      </trkpt>
      <trkpt lat="46.79857" lon="-0.9835">
        <ele>95</ele>
        <time>2024-01-09T17:03:06Z</time>
      </trkpt>
      <trkpt lat="46.79843" lon="-0.98353">
        <ele>95</ele>
        <time>2024-01-09T17:03:08Z</time>
      </trkpt>
      <trkpt lat="46.79806" lon="-0.98366">
        <ele>94</ele>
        <time>2024-01-09T17:03:15Z</time>
      </trkpt>
      <trkpt lat="46.79779" lon="-0.9837">
        <ele>94</ele>
        <time>2024-01-09T17:03:20Z</time>
      </trkpt>
      <trkpt lat="46.79758" lon="-0.98369">
        <ele>94</ele>
        <time>2024-01-09T17:03:24Z</time>
      </trkpt>
      <trkpt lat="46.7972" lon="-0.98354">
        <ele>94</ele>
        <time>2024-01-09T17:03:31Z</time>
      </trkpt>
      <trkpt lat="46.79679" lon="-0.98329">
        <ele>96</ele>
        <time>2024-01-09T17:03:39Z</time>
      </trkpt>
      <trkpt lat="46.79661" lon="-0.98314">
        <ele>97</ele>
        <time>2024-01-09T17:03:42Z</time>
      </trkpt>
      <trkpt lat="46.7964" lon="-0.98287">
        <ele>100</ele>
        <time>2024-01-09T17:03:47Z</time>
      </trkpt>
      <trkpt lat="46.79628" lon="-0.9827">
        <ele>101</ele>
        <time>2024-01-09T17:03:50Z</time>
      </trkpt>
      <trkpt lat="46.79606" lon="-0.98229">
        <ele>103</ele>
        <time>2024-01-09T17:03:57Z</time>
      </trkpt>
      <trkpt lat="46.7957" lon="-0.98156">
        <ele>106</ele>
        <time>2024-01-09T17:04:08Z</time>
      </trkpt>
      <trkpt lat="46.79557" lon="-0.98136">
        <ele>106</ele>
        <time>2024-01-09T17:04:11Z</time>
      </trkpt>
      <trkpt lat="46.79528" lon="-0.98102">
        <ele>107</ele>
        <time>2024-01-09T17:04:18Z</time>
      </trkpt>
      <trkpt lat="46.79472" lon="-0.98045">
        <ele>109</ele>
        <time>2024-01-09T17:04:30Z</time>
      </trkpt>
      <trkpt lat="46.79449" lon="-0.98012">
        <ele>110</ele>
        <time>2024-01-09T17:04:36Z</time>
      </trkpt>
      <trkpt lat="46.79412" lon="-0.97942">
        <ele>111</ele>
        <time>2024-01-09T17:04:46Z</time>
      </trkpt>
      <trkpt lat="46.79397" lon="-0.97902">
        <ele>111</ele>
        <time>2024-01-09T17:04:52Z</time>
      </trkpt>
      <trkpt lat="46.79384" lon="-0.97862">
        <ele>112</ele>
        <time>2024-01-09T17:04:57Z</time>
      </trkpt>
      <trkpt lat="46.79369" lon="-0.97808">
        <ele>113</ele>
        <time>2024-01-09T17:05:04Z</time>
      </trkpt>
      <trkpt lat="46.79362" lon="-0.97766">
        <ele>113</ele>
        <time>2024-01-09T17:05:10Z</time>
      </trkpt>
      <trkpt lat="46.79356" lon="-0.97672">
        <ele>113</ele>
        <time>2024-01-09T17:05:21Z</time>
      </trkpt>
      <trkpt lat="46.79349" lon="-0.97628">
        <ele>113</ele>
        <time>2024-01-09T17:05:27Z</time>
      </trkpt>
      <trkpt lat="46.79341" lon="-0.97595">
        <ele>113</ele>
        <time>2024-01-09T17:05:31Z</time>
      </trkpt>
      <trkpt lat="46.79314" lon="-0.9753">
        <ele>111</ele>
        <time>2024-01-09T17:05:40Z</time>
      </trkpt>
      <trkpt lat="46.79275" lon="-0.97455">
        <ele>110</ele>
        <time>2024-01-09T17:05:52Z</time>
      </trkpt>
      <trkpt lat="46.79255" lon="-0.97424">
        <ele>109</ele>
        <time>2024-01-09T17:05:57Z</time>
      </trkpt>
      <trkpt lat="46.79214" lon="-0.97365">
        <ele>109</ele>
        <time>2024-01-09T17:06:07Z</time>
      </trkpt>
      <trkpt lat="46.79163" lon="-0.97304">
        <ele>108</ele>
        <time>2024-01-09T17:06:19Z</time>
      </trkpt>
      <trkpt lat="46.79092" lon="-0.97225">
        <ele>105</ele>
        <time>2024-01-09T17:06:35Z</time>
      </trkpt>
      <trkpt lat="46.79046" lon="-0.97182">
        <ele>104</ele>
        <time>2024-01-09T17:06:44Z</time>
      </trkpt>
      <trkpt lat="46.79015" lon="-0.97156">
        <ele>105</ele>
        <time>2024-01-09T17:06:51Z</time>
      </trkpt>
      <trkpt lat="46.78918" lon="-0.97084">
        <ele>107</ele>
        <time>2024-01-09T17:07:10Z</time>
      </trkpt>
      <trkpt lat="46.78851" lon="-0.97046">
        <ele>108</ele>
        <time>2024-01-09T17:07:23Z</time>
      </trkpt>
      <trkpt lat="46.78772" lon="-0.97009">
        <ele>110</ele>
        <time>2024-01-09T17:07:38Z</time>
      </trkpt>
      <trkpt lat="46.78665" lon="-0.9697">
        <ele>117</ele>
        <time>2024-01-09T17:07:57Z</time>
      </trkpt>
      <trkpt lat="46.78613" lon="-0.96948">
        <ele>121</ele>
        <time>2024-01-09T17:08:07Z</time>
      </trkpt>
      <trkpt lat="46.78486" lon="-0.96862">
        <ele>124</ele>
        <time>2024-01-09T17:08:32Z</time>
      </trkpt>
      <trkpt lat="46.78357" lon="-0.96774">
        <ele>121</ele>
        <time>2024-01-09T17:08:57Z</time>
      </trkpt>
      <trkpt lat="46.78338" lon="-0.96767">
        <ele>120</ele>
        <time>2024-01-09T17:09:01Z</time>
      </trkpt>
      <trkpt lat="46.78319" lon="-0.96764">
        <ele>120</ele>
        <time>2024-01-09T17:09:04Z</time>
      </trkpt>
      <trkpt lat="46.78231" lon="-0.96753">
        <ele>120</ele>
        <time>2024-01-09T17:09:20Z</time>
      </trkpt>
      <trkpt lat="46.78188" lon="-0.96734">
        <ele>121</ele>
        <time>2024-01-09T17:09:28Z</time>
      </trkpt>
      <trkpt lat="46.78104" lon="-0.96682">
        <ele>122</ele>
        <time>2024-01-09T17:09:44Z</time>
      </trkpt>
      <trkpt lat="46.78025" lon="-0.96653">
        <ele>124</ele>
        <time>2024-01-09T17:09:58Z</time>
      </trkpt>
      <trkpt lat="46.77879" lon="-0.96606">
        <ele>127</ele>
        <time>2024-01-09T17:10:25Z</time>
      </trkpt>
      <trkpt lat="46.77834" lon="-0.96582">
        <ele>127</ele>
        <time>2024-01-09T17:10:34Z</time>
      </trkpt>
      <trkpt lat="46.77794" lon="-0.96557">
        <ele>130</ele>
        <time>2024-01-09T17:10:41Z</time>
      </trkpt>
      <trkpt lat="46.77663" lon="-0.9644">
        <ele>134</ele>
        <time>2024-01-09T17:11:09Z</time>
      </trkpt>
      <trkpt lat="46.7761" lon="-0.96377">
        <ele>133</ele>
        <time>2024-01-09T17:11:21Z</time>
      </trkpt>
      <trkpt lat="46.77591" lon="-0.96355">
        <ele>132</ele>
        <time>2024-01-09T17:11:25Z</time>
      </trkpt>
      <trkpt lat="46.77576" lon="-0.96346">
        <ele>131</ele>
        <time>2024-01-09T17:11:28Z</time>
      </trkpt>
      <trkpt lat="46.77559" lon="-0.96337">
        <ele>131</ele>
        <time>2024-01-09T17:11:31Z</time>
      </trkpt>
      <trkpt lat="46.77527" lon="-0.96334">
        <ele>130</ele>
        <time>2024-01-09T17:11:37Z</time>
      </trkpt>
      <trkpt lat="46.77501" lon="-0.96334">
        <ele>130</ele>
        <time>2024-01-09T17:11:42Z</time>
      </trkpt>
      <trkpt lat="46.77446" lon="-0.96343">
        <ele>129</ele>
        <time>2024-01-09T17:11:51Z</time>
      </trkpt>
      <trkpt lat="46.7735" lon="-0.96372">
        <ele>128</ele>
        <time>2024-01-09T17:12:09Z</time>
      </trkpt>
      <trkpt lat="46.77263" lon="-0.96389">
        <ele>124</ele>
        <time>2024-01-09T17:12:24Z</time>
      </trkpt>
      <trkpt lat="46.77235" lon="-0.9639">
        <ele>124</ele>
        <time>2024-01-09T17:12:29Z</time>
      </trkpt>
      <trkpt lat="46.77215" lon="-0.96386">
        <ele>124</ele>
        <time>2024-01-09T17:12:33Z</time>
      </trkpt>
      <trkpt lat="46.77197" lon="-0.96375">
        <ele>124</ele>
        <time>2024-01-09T17:12:37Z</time>
      </trkpt>
      <trkpt lat="46.77138" lon="-0.96322">
        <ele>120</ele>
        <time>2024-01-09T17:12:49Z</time>
      </trkpt>
      <trkpt lat="46.77111" lon="-0.96294">
        <ele>119</ele>
        <time>2024-01-09T17:12:55Z</time>
      </trkpt>
      <trkpt lat="46.76985" lon="-0.96149">
        <ele>111</ele>
        <time>2024-01-09T17:13:23Z</time>
      </trkpt>
      <trkpt lat="46.76954" lon="-0.96116">
        <ele>108</ele>
        <time>2024-01-09T17:13:30Z</time>
      </trkpt>
      <trkpt lat="46.76925" lon="-0.96091">
        <ele>107</ele>
        <time>2024-01-09T17:13:36Z</time>
      </trkpt>
      <trkpt lat="46.76907" lon="-0.96081">
        <ele>106</ele>
        <time>2024-01-09T17:13:40Z</time>
      </trkpt>
      <trkpt lat="46.76886" lon="-0.96075">
        <ele>107</ele>
        <time>2024-01-09T17:13:43Z</time>
      </trkpt>
      <trkpt lat="46.76863" lon="-0.96073">
        <ele>107</ele>
        <time>2024-01-09T17:13:47Z</time>
      </trkpt>
      <trkpt lat="46.76742" lon="-0.96075">
        <ele>110</ele>
        <time>2024-01-09T17:14:09Z</time>
      </trkpt>
      <trkpt lat="46.76697" lon="-0.96071">
        <ele>110</ele>
        <time>2024-01-09T17:14:17Z</time>
      </trkpt>
      <trkpt lat="46.76632" lon="-0.96059">
        <ele>110</ele>
        <time>2024-01-09T17:14:29Z</time>
      </trkpt>
      <trkpt lat="46.76596" lon="-0.96046">
        <ele>110</ele>
        <time>2024-01-09T17:14:35Z</time>
      </trkpt>
      <trkpt lat="46.76573" lon="-0.96028">
        <ele>110</ele>
        <time>2024-01-09T17:14:40Z</time>
      </trkpt>
      <trkpt lat="46.76509" lon="-0.9596">
        <ele>110</ele>
        <time>2024-01-09T17:14:54Z</time>
      </trkpt>
      <trkpt lat="46.76487" lon="-0.95941">
        <ele>110</ele>
        <time>2024-01-09T17:14:59Z</time>
      </trkpt>
      <trkpt lat="46.76465" lon="-0.95927">
        <ele>110</ele>
        <time>2024-01-09T17:15:03Z</time>
      </trkpt>
      <trkpt lat="46.76367" lon="-0.95882">
        <ele>110</ele>
        <time>2024-01-09T17:15:21Z</time>
      </trkpt>
      <trkpt lat="46.76326" lon="-0.95868">
        <ele>109</ele>
        <time>2024-01-09T17:15:29Z</time>
      </trkpt>
      <trkpt lat="46.76226" lon="-0.95845">
        <ele>107</ele>
        <time>2024-01-09T17:15:47Z</time>
      </trkpt>
      <trkpt lat="46.76221" lon="-0.95838">
        <ele>107</ele>
        <time>2024-01-09T17:15:48Z</time>
      </trkpt>
      <trkpt lat="46.76099" lon="-0.9596">
        <ele>103</ele>
        <time>2024-01-09T17:16:14Z</time>
      </trkpt>
      <trkpt lat="46.76082" lon="-0.95983">
        <ele>104</ele>
        <time>2024-01-09T17:16:18Z</time>
      </trkpt>
      <trkpt lat="46.76063" lon="-0.9602">
        <ele>105</ele>
        <time>2024-01-09T17:16:24Z</time>
      </trkpt>
      <trkpt lat="46.7607" lon="-0.9603">
        <ele>105</ele>
        <time>2024-01-09T17:16:26Z</time>
      </trkpt>
      <trkpt lat="46.76071" lon="-0.96044">
        <ele>105</ele>
        <time>2024-01-09T17:16:27Z</time>
      </trkpt>
      <trkpt lat="46.76069" lon="-0.96051">
        <ele>105</ele>
        <time>2024-01-09T17:16:28Z</time>
      </trkpt>
      <trkpt lat="46.76063" lon="-0.96059">
        <ele>105</ele>
        <time>2024-01-09T17:16:30Z</time>
      </trkpt>
      <trkpt lat="46.76055" lon="-0.96062">
        <ele>105</ele>
        <time>2024-01-09T17:16:31Z</time>
      </trkpt>
      <trkpt lat="46.76047" lon="-0.96057">
        <ele>105</ele>
        <time>2024-01-09T17:16:33Z</time>
      </trkpt>
      <trkpt lat="46.76042" lon="-0.96047">
        <ele>105</ele>
        <time>2024-01-09T17:16:34Z</time>
      </trkpt>
      <trkpt lat="46.75997" lon="-0.96096">
        <ele>107</ele>
        <time>2024-01-09T17:16:44Z</time>
      </trkpt>
      <trkpt lat="46.7598" lon="-0.96108">
        <ele>108</ele>
        <time>2024-01-09T17:16:48Z</time>
      </trkpt>
      <trkpt lat="46.75961" lon="-0.96118">
        <ele>108</ele>
        <time>2024-01-09T17:16:51Z</time>
      </trkpt>
      <trkpt lat="46.75937" lon="-0.96124">
        <ele>109</ele>
        <time>2024-01-09T17:16:56Z</time>
      </trkpt>
      <trkpt lat="46.75902" lon="-0.96127">
        <ele>110</ele>
        <time>2024-01-09T17:17:02Z</time>
      </trkpt>
      <trkpt lat="46.75885" lon="-0.96131">
        <ele>110</ele>
        <time>2024-01-09T17:17:05Z</time>
      </trkpt>
      <trkpt lat="46.75799" lon="-0.96166">
        <ele>111</ele>
        <time>2024-01-09T17:17:21Z</time>
      </trkpt>
      <trkpt lat="46.75786" lon="-0.96174">
        <ele>110</ele>
        <time>2024-01-09T17:17:23Z</time>
      </trkpt>
      <trkpt lat="46.75755" lon="-0.96199">
        <ele>109</ele>
        <time>2024-01-09T17:17:30Z</time>
      </trkpt>
      <trkpt lat="46.75669" lon="-0.96287">
        <ele>108</ele>
        <time>2024-01-09T17:17:48Z</time>
      </trkpt>
      <trkpt lat="46.75647" lon="-0.96302">
        <ele>107</ele>
        <time>2024-01-09T17:17:53Z</time>
      </trkpt>
      <trkpt lat="46.75563" lon="-0.96079">
        <ele>103</ele>
        <time>2024-01-09T17:18:24Z</time>
      </trkpt>
      <trkpt lat="46.75548" lon="-0.96043">
        <ele>103</ele>
        <time>2024-01-09T17:18:29Z</time>
      </trkpt>
      <trkpt lat="46.75529" lon="-0.96004">
        <ele>102</ele>
        <time>2024-01-09T17:18:35Z</time>
      </trkpt>
      <trkpt lat="46.7552" lon="-0.9598">
        <ele>102</ele>
        <time>2024-01-09T17:18:38Z</time>
      </trkpt>
      <trkpt lat="46.75507" lon="-0.95967">
        <ele>102</ele>
        <time>2024-01-09T17:18:41Z</time>
      </trkpt>
      <trkpt lat="46.75412" lon="-0.95891">
        <ele>99</ele>
        <time>2024-01-09T17:19:00Z</time>
      </trkpt>
      <trkpt lat="46.75388" lon="-0.95867">
        <ele>99</ele>
        <time>2024-01-09T17:19:05Z</time>
      </trkpt>
      <trkpt lat="46.75376" lon="-0.95852">
        <ele>99</ele>
        <time>2024-01-09T17:19:08Z</time>
      </trkpt>
      <trkpt lat="46.75348" lon="-0.9581">
        <ele>98</ele>
        <time>2024-01-09T17:19:15Z</time>
      </trkpt>
      <trkpt lat="46.7534" lon="-0.95814">
        <ele>97</ele>
        <time>2024-01-09T17:19:17Z</time>
      </trkpt>
      <trkpt lat="46.75331" lon="-0.9581">
        <ele>97</ele>
        <time>2024-01-09T17:19:18Z</time>
      </trkpt>
      <trkpt lat="46.75328" lon="-0.95805">
        <ele>97</ele>
        <time>2024-01-09T17:19:19Z</time>
      </trkpt>
      <trkpt lat="46.75327" lon="-0.95794">
        <ele>97</ele>
        <time>2024-01-09T17:19:20Z</time>
      </trkpt>
      <trkpt lat="46.75329" lon="-0.95783">
        <ele>97</ele>
        <time>2024-01-09T17:19:22Z</time>
      </trkpt>
      <trkpt lat="46.75332" lon="-0.95779">
        <ele>97</ele>
        <time>2024-01-09T17:19:23Z</time>
      </trkpt>
      <trkpt lat="46.7532" lon="-0.95753">
        <ele>96</ele>
        <time>2024-01-09T17:19:26Z</time>
      </trkpt>
      <trkpt lat="46.753" lon="-0.95701">
        <ele>93</ele>
        <time>2024-01-09T17:19:34Z</time>
      </trkpt>
      <trkpt lat="46.75288" lon="-0.95675">
        <ele>91</ele>
        <time>2024-01-09T17:19:37Z</time>
      </trkpt>
      <trkpt lat="46.75263" lon="-0.95631">
        <ele>88</ele>
        <time>2024-01-09T17:19:44Z</time>
      </trkpt>
      <trkpt lat="46.75236" lon="-0.95596">
        <ele>86</ele>
        <time>2024-01-09T17:19:51Z</time>
      </trkpt>
      <trkpt lat="46.75222" lon="-0.95582">
        <ele>85</ele>
        <time>2024-01-09T17:19:54Z</time>
      </trkpt>
      <trkpt lat="46.75172" lon="-0.95544">
        <ele>82</ele>
        <time>2024-01-09T17:20:04Z</time>
      </trkpt>
      <trkpt lat="46.75152" lon="-0.95522">
        <ele>82</ele>
        <time>2024-01-09T17:20:08Z</time>
      </trkpt>
      <trkpt lat="46.75139" lon="-0.95505">
        <ele>82</ele>
        <time>2024-01-09T17:20:11Z</time>
      </trkpt>
      <trkpt lat="46.75113" lon="-0.95467">
        <ele>80</ele>
        <time>2024-01-09T17:20:18Z</time>
      </trkpt>
      <trkpt lat="46.75096" lon="-0.9543">
        <ele>78</ele>
        <time>2024-01-09T17:20:23Z</time>
      </trkpt>
      <trkpt lat="46.7509" lon="-0.95405">
        <ele>77</ele>
        <time>2024-01-09T17:20:27Z</time>
      </trkpt>
      <trkpt lat="46.75076" lon="-0.95307">
        <ele>75</ele>
        <time>2024-01-09T17:20:39Z</time>
      </trkpt>
      <trkpt lat="46.75071" lon="-0.95278">
        <ele>73</ele>
        <time>2024-01-09T17:20:42Z</time>
      </trkpt>
      <trkpt lat="46.75064" lon="-0.95252">
        <ele>71</ele>
        <time>2024-01-09T17:20:46Z</time>
      </trkpt>
      <trkpt lat="46.75049" lon="-0.95215">
        <ele>68</ele>
        <time>2024-01-09T17:20:51Z</time>
      </trkpt>
      <trkpt lat="46.75035" lon="-0.95191">
        <ele>66</ele>
        <time>2024-01-09T17:20:55Z</time>
      </trkpt>
      <trkpt lat="46.75014" lon="-0.95168">
        <ele>64</ele>
        <time>2024-01-09T17:21:00Z</time>
      </trkpt>
      <trkpt lat="46.74999" lon="-0.95155">
        <ele>64</ele>
        <time>2024-01-09T17:21:03Z</time>
      </trkpt>
      <trkpt lat="46.74968" lon="-0.95137">
        <ele>67</ele>
        <time>2024-01-09T17:21:09Z</time>
      </trkpt>
      <trkpt lat="46.74942" lon="-0.95132">
        <ele>70</ele>
        <time>2024-01-09T17:21:13Z</time>
      </trkpt>
      <trkpt lat="46.74932" lon="-0.95132">
        <ele>70</ele>
        <time>2024-01-09T17:21:15Z</time>
      </trkpt>
      <trkpt lat="46.74919" lon="-0.95136">
        <ele>71</ele>
        <time>2024-01-09T17:21:18Z</time>
      </trkpt>
      <trkpt lat="46.74888" lon="-0.95152">
        <ele>70</ele>
        <time>2024-01-09T17:21:23Z</time>
      </trkpt>
      <trkpt lat="46.7487" lon="-0.95157">
        <ele>71</ele>
        <time>2024-01-09T17:21:27Z</time>
      </trkpt>
      <trkpt lat="46.74855" lon="-0.95156">
        <ele>72</ele>
        <time>2024-01-09T17:21:29Z</time>
      </trkpt>
      <trkpt lat="46.74823" lon="-0.95148">
        <ele>74</ele>
        <time>2024-01-09T17:21:35Z</time>
      </trkpt>
      <trkpt lat="46.74812" lon="-0.9515">
        <ele>74</ele>
        <time>2024-01-09T17:21:37Z</time>
      </trkpt>
      <trkpt lat="46.74797" lon="-0.95157">
        <ele>74</ele>
        <time>2024-01-09T17:21:40Z</time>
      </trkpt>
      <trkpt lat="46.74774" lon="-0.95173">
        <ele>75</ele>
        <time>2024-01-09T17:21:44Z</time>
      </trkpt>
      <trkpt lat="46.7476" lon="-0.95177">
        <ele>76</ele>
        <time>2024-01-09T17:21:47Z</time>
      </trkpt>
      <trkpt lat="46.74747" lon="-0.95177">
        <ele>77</ele>
        <time>2024-01-09T17:21:49Z</time>
      </trkpt>
      <trkpt lat="46.74735" lon="-0.95171">
        <ele>78</ele>
        <time>2024-01-09T17:21:51Z</time>
      </trkpt>
      <trkpt lat="46.74726" lon="-0.95163">
        <ele>80</ele>
        <time>2024-01-09T17:21:53Z</time>
      </trkpt>
      <trkpt lat="46.74689" lon="-0.95116">
        <ele>83</ele>
        <time>2024-01-09T17:22:02Z</time>
      </trkpt>
      <trkpt lat="46.74681" lon="-0.9511">
        <ele>84</ele>
        <time>2024-01-09T17:22:04Z</time>
      </trkpt>
      <trkpt lat="46.74669" lon="-0.95102">
        <ele>85</ele>
        <time>2024-01-09T17:22:06Z</time>
      </trkpt>
      <trkpt lat="46.74616" lon="-0.95087">
        <ele>88</ele>
        <time>2024-01-09T17:22:16Z</time>
      </trkpt>
      <trkpt lat="46.74584" lon="-0.95069">
        <ele>90</ele>
        <time>2024-01-09T17:22:22Z</time>
      </trkpt>
      <trkpt lat="46.74563" lon="-0.95053">
        <ele>91</ele>
        <time>2024-01-09T17:22:26Z</time>
      </trkpt>
      <trkpt lat="46.74538" lon="-0.95017">
        <ele>92</ele>
        <time>2024-01-09T17:22:32Z</time>
      </trkpt>
      <trkpt lat="46.74518" lon="-0.94984">
        <ele>94</ele>
        <time>2024-01-09T17:22:38Z</time>
      </trkpt>
      <trkpt lat="46.7451" lon="-0.94958">
        <ele>95</ele>
        <time>2024-01-09T17:22:41Z</time>
      </trkpt>
      <trkpt lat="46.74505" lon="-0.94949">
        <ele>96</ele>
        <time>2024-01-09T17:22:42Z</time>
      </trkpt>
      <trkpt lat="46.74498" lon="-0.94945">
        <ele>97</ele>
        <time>2024-01-09T17:22:44Z</time>
      </trkpt>
      <trkpt lat="46.74492" lon="-0.94952">
        <ele>96</ele>
        <time>2024-01-09T17:22:45Z</time>
      </trkpt>
      <trkpt lat="46.74484" lon="-0.94953">
        <ele>97</ele>
        <time>2024-01-09T17:22:47Z</time>
      </trkpt>
      <trkpt lat="46.74475" lon="-0.94934">
        <ele>98</ele>
        <time>2024-01-09T17:22:49Z</time>
      </trkpt>
      <trkpt lat="46.74475" lon="-0.94923">
        <ele>98</ele>
        <time>2024-01-09T17:22:51Z</time>
      </trkpt>
      <trkpt lat="46.74454" lon="-0.94901">
        <ele>99</ele>
        <time>2024-01-09T17:22:55Z</time>
      </trkpt>
      <trkpt lat="46.74448" lon="-0.94899">
        <ele>99</ele>
        <time>2024-01-09T17:22:56Z</time>
      </trkpt>
      <trkpt lat="46.74437" lon="-0.949">
        <ele>99</ele>
        <time>2024-01-09T17:22:58Z</time>
      </trkpt>
      <trkpt lat="46.74422" lon="-0.94908">
        <ele>99</ele>
        <time>2024-01-09T17:23:01Z</time>
      </trkpt>
      <trkpt lat="46.74396" lon="-0.94916">
        <ele>100</ele>
        <time>2024-01-09T17:23:06Z</time>
      </trkpt>
      <trkpt lat="46.74385" lon="-0.94918">
        <ele>100</ele>
        <time>2024-01-09T17:23:08Z</time>
      </trkpt>
      <trkpt lat="46.74354" lon="-0.94915">
        <ele>102</ele>
        <time>2024-01-09T17:23:13Z</time>
      </trkpt>
      <trkpt lat="46.74291" lon="-0.94909">
        <ele>105</ele>
        <time>2024-01-09T17:23:25Z</time>
      </trkpt>
      <trkpt lat="46.74237" lon="-0.94899">
        <ele>107</ele>
        <time>2024-01-09T17:23:34Z</time>
      </trkpt>
      <trkpt lat="46.74213" lon="-0.94893">
        <ele>107</ele>
        <time>2024-01-09T17:23:39Z</time>
      </trkpt>
      <trkpt lat="46.74165" lon="-0.94873">
        <ele>108</ele>
        <time>2024-01-09T17:23:48Z</time>
      </trkpt>
      <trkpt lat="46.74143" lon="-0.94857">
        <ele>108</ele>
        <time>2024-01-09T17:23:52Z</time>
      </trkpt>
      <trkpt lat="46.74125" lon="-0.94838">
        <ele>108</ele>
        <time>2024-01-09T17:23:56Z</time>
      </trkpt>
      <trkpt lat="46.7408" lon="-0.94774">
        <ele>107</ele>
        <time>2024-01-09T17:24:07Z</time>
      </trkpt>
      <trkpt lat="46.74059" lon="-0.94737">
        <ele>107</ele>
        <time>2024-01-09T17:24:13Z</time>
      </trkpt>
      <trkpt lat="46.74003" lon="-0.94623">
        <ele>109</ele>
        <time>2024-01-09T17:24:30Z</time>
      </trkpt>
      <trkpt lat="46.7398" lon="-0.94581">
        <ele>108</ele>
        <time>2024-01-09T17:24:37Z</time>
      </trkpt>
      <trkpt lat="46.73917" lon="-0.94504">
        <ele>108</ele>
        <time>2024-01-09T17:24:51Z</time>
      </trkpt>
      <trkpt lat="46.73874" lon="-0.94459">
        <ele>106</ele>
        <time>2024-01-09T17:25:01Z</time>
      </trkpt>
      <trkpt lat="46.73853" lon="-0.94442">
        <ele>105</ele>
        <time>2024-01-09T17:25:05Z</time>
      </trkpt>
      <trkpt lat="46.73825" lon="-0.94423">
        <ele>103</ele>
        <time>2024-01-09T17:25:10Z</time>
      </trkpt>
      <trkpt lat="46.73801" lon="-0.94412">
        <ele>102</ele>
        <time>2024-01-09T17:25:15Z</time>
      </trkpt>
      <trkpt lat="46.7374" lon="-0.94391">
        <ele>99</ele>
        <time>2024-01-09T17:25:26Z</time>
      </trkpt>
      <trkpt lat="46.73632" lon="-0.94362">
        <ele>97</ele>
        <time>2024-01-09T17:25:46Z</time>
      </trkpt>
      <trkpt lat="46.73605" lon="-0.94346">
        <ele>97</ele>
        <time>2024-01-09T17:25:51Z</time>
      </trkpt>
      <trkpt lat="46.73586" lon="-0.94332">
        <ele>97</ele>
        <time>2024-01-09T17:25:55Z</time>
      </trkpt>
      <trkpt lat="46.73555" lon="-0.94303">
        <ele>96</ele>
        <time>2024-01-09T17:26:01Z</time>
      </trkpt>
      <trkpt lat="46.73483" lon="-0.94227">
        <ele>97</ele>
        <time>2024-01-09T17:26:17Z</time>
      </trkpt>
      <trkpt lat="46.73463" lon="-0.94203">
        <ele>98</ele>
        <time>2024-01-09T17:26:22Z</time>
      </trkpt>
      <trkpt lat="46.73215" lon="-0.93862">
        <ele>105</ele>
        <time>2024-01-09T17:27:22Z</time>
      </trkpt>
      <trkpt lat="46.73119" lon="-0.93729">
        <ele>102</ele>
        <time>2024-01-09T17:27:46Z</time>
      </trkpt>
      <trkpt lat="46.731" lon="-0.93701">
        <ele>102</ele>
        <time>2024-01-09T17:27:51Z</time>
      </trkpt>
      <trkpt lat="46.73075" lon="-0.93651">
        <ele>102</ele>
        <time>2024-01-09T17:27:58Z</time>
      </trkpt>
      <trkpt lat="46.73062" lon="-0.93617">
        <ele>102</ele>
        <time>2024-01-09T17:28:03Z</time>
      </trkpt>
      <trkpt lat="46.73026" lon="-0.93502">
        <ele>101</ele>
        <time>2024-01-09T17:28:18Z</time>
      </trkpt>
      <trkpt lat="46.73012" lon="-0.9347">
        <ele>101</ele>
        <time>2024-01-09T17:28:23Z</time>
      </trkpt>
      <trkpt lat="46.72996" lon="-0.9344">
        <ele>101</ele>
        <time>2024-01-09T17:28:28Z</time>
      </trkpt>
      <trkpt lat="46.72979" lon="-0.93413">
        <ele>101</ele>
        <time>2024-01-09T17:28:32Z</time>
      </trkpt>
      <trkpt lat="46.72953" lon="-0.93374">
        <ele>102</ele>
        <time>2024-01-09T17:28:39Z</time>
      </trkpt>
      <trkpt lat="46.72679" lon="-0.93023">
        <ele>92</ele>
        <time>2024-01-09T17:29:44Z</time>
      </trkpt>
      <trkpt lat="46.72649" lon="-0.92976">
        <ele>90</ele>
        <time>2024-01-09T17:29:51Z</time>
      </trkpt>
      <trkpt lat="46.72569" lon="-0.92826">
        <ele>81</ele>
        <time>2024-01-09T17:30:15Z</time>
      </trkpt>
      <trkpt lat="46.72539" lon="-0.92778">
        <ele>79</ele>
        <time>2024-01-09T17:30:22Z</time>
      </trkpt>
      <trkpt lat="46.72511" lon="-0.92742">
        <ele>76</ele>
        <time>2024-01-09T17:30:29Z</time>
      </trkpt>
      <trkpt lat="46.72479" lon="-0.92703">
        <ele>73</ele>
        <time>2024-01-09T17:30:37Z</time>
      </trkpt>
      <trkpt lat="46.72415" lon="-0.92637">
        <ele>69</ele>
        <time>2024-01-09T17:30:50Z</time>
      </trkpt>
      <trkpt lat="46.72398" lon="-0.92614">
        <ele>69</ele>
        <time>2024-01-09T17:30:55Z</time>
      </trkpt>
      <trkpt lat="46.72385" lon="-0.9259">
        <ele>69</ele>
        <time>2024-01-09T17:30:58Z</time>
      </trkpt>
      <trkpt lat="46.72367" lon="-0.92549">
        <ele>71</ele>
        <time>2024-01-09T17:31:04Z</time>
      </trkpt>
      <trkpt lat="46.72359" lon="-0.92526">
        <ele>72</ele>
        <time>2024-01-09T17:31:07Z</time>
      </trkpt>
      <trkpt lat="46.72352" lon="-0.92503">
        <ele>72</ele>
        <time>2024-01-09T17:31:10Z</time>
      </trkpt>
      <trkpt lat="46.72342" lon="-0.92454">
        <ele>73</ele>
        <time>2024-01-09T17:31:17Z</time>
      </trkpt>
      <trkpt lat="46.72337" lon="-0.92433">
        <ele>74</ele>
        <time>2024-01-09T17:31:19Z</time>
      </trkpt>
      <trkpt lat="46.72323" lon="-0.92401">
        <ele>75</ele>
        <time>2024-01-09T17:31:24Z</time>
      </trkpt>
      <trkpt lat="46.72313" lon="-0.92384">
        <ele>76</ele>
        <time>2024-01-09T17:31:27Z</time>
      </trkpt>
      <trkpt lat="46.72299" lon="-0.92368">
        <ele>77</ele>
        <time>2024-01-09T17:31:30Z</time>
      </trkpt>
      <trkpt lat="46.72281" lon="-0.92354">
        <ele>78</ele>
        <time>2024-01-09T17:31:34Z</time>
      </trkpt>
      <trkpt lat="46.72255" lon="-0.92341">
        <ele>79</ele>
        <time>2024-01-09T17:31:38Z</time>
      </trkpt>
      <trkpt lat="46.72028" lon="-0.92241">
        <ele>92</ele>
        <time>2024-01-09T17:32:21Z</time>
      </trkpt>
      <trkpt lat="46.71968" lon="-0.92206">
        <ele>95</ele>
        <time>2024-01-09T17:32:32Z</time>
      </trkpt>
      <trkpt lat="46.71931" lon="-0.92178">
        <ele>96</ele>
        <time>2024-01-09T17:32:40Z</time>
      </trkpt>
      <trkpt lat="46.71902" lon="-0.92151">
        <ele>97</ele>
        <time>2024-01-09T17:32:46Z</time>
      </trkpt>
      <trkpt lat="46.71867" lon="-0.92118">
        <ele>99</ele>
        <time>2024-01-09T17:32:53Z</time>
      </trkpt>
      <trkpt lat="46.71851" lon="-0.92096">
        <ele>100</ele>
        <time>2024-01-09T17:32:57Z</time>
      </trkpt>
      <trkpt lat="46.71838" lon="-0.92083">
        <ele>101</ele>
        <time>2024-01-09T17:33:00Z</time>
      </trkpt>
      <trkpt lat="46.71823" lon="-0.92063">
        <ele>101</ele>
        <time>2024-01-09T17:33:03Z</time>
      </trkpt>
      <trkpt lat="46.71787" lon="-0.92005">
        <ele>103</ele>
        <time>2024-01-09T17:33:13Z</time>
      </trkpt>
      <trkpt lat="46.7177" lon="-0.91968">
        <ele>103</ele>
        <time>2024-01-09T17:33:18Z</time>
      </trkpt>
      <trkpt lat="46.71758" lon="-0.91946">
        <ele>102</ele>
        <time>2024-01-09T17:33:22Z</time>
      </trkpt>
      <trkpt lat="46.71749" lon="-0.91936">
        <ele>102</ele>
        <time>2024-01-09T17:33:24Z</time>
      </trkpt>
      <trkpt lat="46.71709" lon="-0.91913">
        <ele>103</ele>
        <time>2024-01-09T17:33:32Z</time>
      </trkpt>
      <trkpt lat="46.717" lon="-0.91927">
        <ele>103</ele>
        <time>2024-01-09T17:33:34Z</time>
      </trkpt>
      <trkpt lat="46.71675" lon="-0.91934">
        <ele>104</ele>
        <time>2024-01-09T17:33:38Z</time>
      </trkpt>
      <trkpt lat="46.71646" lon="-0.91936">
        <ele>104</ele>
        <time>2024-01-09T17:33:44Z</time>
      </trkpt>
      <trkpt lat="46.71608" lon="-0.91927">
        <ele>105</ele>
        <time>2024-01-09T17:33:50Z</time>
      </trkpt>
      <trkpt lat="46.71585" lon="-0.91914">
        <ele>105</ele>
        <time>2024-01-09T17:33:55Z</time>
      </trkpt>
      <trkpt lat="46.71544" lon="-0.91899">
        <ele>105</ele>
        <time>2024-01-09T17:34:02Z</time>
      </trkpt>
      <trkpt lat="46.71523" lon="-0.91887">
        <ele>105</ele>
        <time>2024-01-09T17:34:06Z</time>
      </trkpt>
      <trkpt lat="46.71508" lon="-0.91884">
        <ele>105</ele>
        <time>2024-01-09T17:34:09Z</time>
      </trkpt>
      <trkpt lat="46.71303" lon="-0.91797">
        <ele>108</ele>
        <time>2024-01-09T17:34:47Z</time>
      </trkpt>
      <trkpt lat="46.71245" lon="-0.91777">
        <ele>108</ele>
        <time>2024-01-09T17:34:58Z</time>
      </trkpt>
      <trkpt lat="46.71224" lon="-0.91773">
        <ele>108</ele>
        <time>2024-01-09T17:35:01Z</time>
      </trkpt>
      <trkpt lat="46.71189" lon="-0.91773">
        <ele>107</ele>
        <time>2024-01-09T17:35:08Z</time>
      </trkpt>
      <trkpt lat="46.71162" lon="-0.91778">
        <ele>106</ele>
        <time>2024-01-09T17:35:12Z</time>
      </trkpt>
      <trkpt lat="46.71137" lon="-0.91786">
        <ele>106</ele>
        <time>2024-01-09T17:35:17Z</time>
      </trkpt>
      <trkpt lat="46.70985" lon="-0.91868">
        <ele>100</ele>
        <time>2024-01-09T17:35:46Z</time>
      </trkpt>
      <trkpt lat="46.70949" lon="-0.91882">
        <ele>98</ele>
        <time>2024-01-09T17:35:52Z</time>
      </trkpt>
      <trkpt lat="46.7091" lon="-0.91889">
        <ele>97</ele>
        <time>2024-01-09T17:35:59Z</time>
      </trkpt>
      <trkpt lat="46.7084" lon="-0.91893">
        <ele>95</ele>
        <time>2024-01-09T17:36:12Z</time>
      </trkpt>
      <trkpt lat="46.70759" lon="-0.91883">
        <ele>97</ele>
        <time>2024-01-09T17:36:26Z</time>
      </trkpt>
      <trkpt lat="46.70232" lon="-0.91574">
        <ele>85</ele>
        <time>2024-01-09T17:38:08Z</time>
      </trkpt>
      <trkpt lat="46.70149" lon="-0.91543">
        <ele>81</ele>
        <time>2024-01-09T17:38:23Z</time>
      </trkpt>
      <trkpt lat="46.70042" lon="-0.91547">
        <ele>74</ele>
        <time>2024-01-09T17:38:42Z</time>
      </trkpt>
      <trkpt lat="46.69974" lon="-0.91571">
        <ele>68</ele>
        <time>2024-01-09T17:38:55Z</time>
      </trkpt>
      <trkpt lat="46.69919" lon="-0.91669">
        <ele>65</ele>
        <time>2024-01-09T17:39:10Z</time>
      </trkpt>
      <trkpt lat="46.69871" lon="-0.91805">
        <ele>65</ele>
        <time>2024-01-09T17:39:29Z</time>
      </trkpt>
      <trkpt lat="46.69802" lon="-0.91876">
        <ele>65</ele>
        <time>2024-01-09T17:39:44Z</time>
      </trkpt>
      <trkpt lat="46.69652" lon="-0.91992">
        <ele>65</ele>
        <time>2024-01-09T17:40:15Z</time>
      </trkpt>
      <trkpt lat="46.6961" lon="-0.9199">
        <ele>66</ele>
        <time>2024-01-09T17:40:22Z</time>
      </trkpt>
      <trkpt lat="46.6946" lon="-0.9189">
        <ele>76</ele>
        <time>2024-01-09T17:40:52Z</time>
      </trkpt>
      <trkpt lat="46.69383" lon="-0.91871">
        <ele>80</ele>
        <time>2024-01-09T17:41:06Z</time>
      </trkpt>
      <trkpt lat="46.69277" lon="-0.91897">
        <ele>85</ele>
        <time>2024-01-09T17:41:25Z</time>
      </trkpt>
      <trkpt lat="46.6922" lon="-0.91892">
        <ele>88</ele>
        <time>2024-01-09T17:41:35Z</time>
      </trkpt>
      <trkpt lat="46.69101" lon="-0.91819">
        <ele>95</ele>
        <time>2024-01-09T17:41:58Z</time>
      </trkpt>
      <trkpt lat="46.69073" lon="-0.91807">
        <ele>97</ele>
        <time>2024-01-09T17:42:03Z</time>
      </trkpt>
      <trkpt lat="46.69034" lon="-0.91801">
        <ele>100</ele>
        <time>2024-01-09T17:42:10Z</time>
      </trkpt>
      <trkpt lat="46.68731" lon="-0.91769">
        <ele>101</ele>
        <time>2024-01-09T17:43:04Z</time>
      </trkpt>
      <trkpt lat="46.68215" lon="-0.91711">
        <ele>86</ele>
        <time>2024-01-09T17:44:37Z</time>
      </trkpt>
      <trkpt lat="46.68176" lon="-0.91699">
        <ele>84</ele>
        <time>2024-01-09T17:44:44Z</time>
      </trkpt>
      <trkpt lat="46.67865" lon="-0.91562">
        <ele>76</ele>
        <time>2024-01-09T17:45:41Z</time>
      </trkpt>
      <trkpt lat="46.67857" lon="-0.91559">
        <ele>75</ele>
        <time>2024-01-09T17:45:43Z</time>
      </trkpt>
      <trkpt lat="46.67835" lon="-0.91557">
        <ele>75</ele>
        <time>2024-01-09T17:45:47Z</time>
      </trkpt>
      <trkpt lat="46.67815" lon="-0.91557">
        <ele>75</ele>
        <time>2024-01-09T17:45:50Z</time>
      </trkpt>
      <trkpt lat="46.67809" lon="-0.91554">
        <ele>75</ele>
        <time>2024-01-09T17:45:52Z</time>
      </trkpt>
      <trkpt lat="46.67785" lon="-0.9155">
        <ele>75</ele>
        <time>2024-01-09T17:45:56Z</time>
      </trkpt>
      <trkpt lat="46.67775" lon="-0.91545">
        <ele>75</ele>
        <time>2024-01-09T17:45:58Z</time>
      </trkpt>
      <trkpt lat="46.67754" lon="-0.91524">
        <ele>75</ele>
        <time>2024-01-09T17:46:02Z</time>
      </trkpt>
      <trkpt lat="46.67735" lon="-0.91511">
        <ele>74</ele>
        <time>2024-01-09T17:46:06Z</time>
      </trkpt>
      <trkpt lat="46.67719" lon="-0.91505">
        <ele>73</ele>
        <time>2024-01-09T17:46:09Z</time>
      </trkpt>
      <trkpt lat="46.67677" lon="-0.91497">
        <ele>70</ele>
        <time>2024-01-09T17:46:16Z</time>
      </trkpt>
      <trkpt lat="46.6763" lon="-0.91498">
        <ele>69</ele>
        <time>2024-01-09T17:46:25Z</time>
      </trkpt>
      <trkpt lat="46.67598" lon="-0.91503">
        <ele>68</ele>
        <time>2024-01-09T17:46:31Z</time>
      </trkpt>
      <trkpt lat="46.6756" lon="-0.91513">
        <ele>69</ele>
        <time>2024-01-09T17:46:37Z</time>
      </trkpt>
      <trkpt lat="46.67526" lon="-0.91529">
        <ele>71</ele>
        <time>2024-01-09T17:46:44Z</time>
      </trkpt>
      <trkpt lat="46.67482" lon="-0.91559">
        <ele>71</ele>
        <time>2024-01-09T17:46:52Z</time>
      </trkpt>
      <trkpt lat="46.67447" lon="-0.91585">
        <ele>71</ele>
        <time>2024-01-09T17:46:59Z</time>
      </trkpt>
      <trkpt lat="46.67346" lon="-0.91675">
        <ele>71</ele>
        <time>2024-01-09T17:47:20Z</time>
      </trkpt>
      <trkpt lat="46.67273" lon="-0.91774">
        <ele>76</ele>
        <time>2024-01-09T17:47:38Z</time>
      </trkpt>
      <trkpt lat="46.67258" lon="-0.91787">
        <ele>77</ele>
        <time>2024-01-09T17:47:41Z</time>
      </trkpt>
      <trkpt lat="46.67235" lon="-0.91801">
        <ele>78</ele>
        <time>2024-01-09T17:47:46Z</time>
      </trkpt>
      <trkpt lat="46.67206" lon="-0.91809">
        <ele>79</ele>
        <time>2024-01-09T17:47:51Z</time>
      </trkpt>
      <trkpt lat="46.6718" lon="-0.91812">
        <ele>81</ele>
        <time>2024-01-09T17:47:56Z</time>
      </trkpt>
      <trkpt lat="46.67144" lon="-0.91813">
        <ele>83</ele>
        <time>2024-01-09T17:48:02Z</time>
      </trkpt>
      <trkpt lat="46.6705" lon="-0.91807">
        <ele>88</ele>
        <time>2024-01-09T17:48:19Z</time>
      </trkpt>
      <trkpt lat="46.67009" lon="-0.91801">
        <ele>89</ele>
        <time>2024-01-09T17:48:26Z</time>
      </trkpt>
      <trkpt lat="46.66618" lon="-0.9169">
        <ele>76</ele>
        <time>2024-01-09T17:49:37Z</time>
      </trkpt>
      <trkpt lat="46.66608" lon="-0.91689">
        <ele>76</ele>
        <time>2024-01-09T17:49:39Z</time>
      </trkpt>
      <trkpt lat="46.66579" lon="-0.91686">
        <ele>74</ele>
        <time>2024-01-09T17:49:44Z</time>
      </trkpt>
      <trkpt lat="46.66555" lon="-0.91687">
        <ele>74</ele>
        <time>2024-01-09T17:49:48Z</time>
      </trkpt>
      <trkpt lat="46.66504" lon="-0.917">
        <ele>72</ele>
        <time>2024-01-09T17:49:57Z</time>
      </trkpt>
      <trkpt lat="46.66461" lon="-0.91722">
        <ele>70</ele>
        <time>2024-01-09T17:50:06Z</time>
      </trkpt>
      <trkpt lat="46.66414" lon="-0.91756">
        <ele>68</ele>
        <time>2024-01-09T17:50:15Z</time>
      </trkpt>
      <trkpt lat="46.66385" lon="-0.91773">
        <ele>67</ele>
        <time>2024-01-09T17:50:20Z</time>
      </trkpt>
      <trkpt lat="46.66366" lon="-0.91782">
        <ele>66</ele>
        <time>2024-01-09T17:50:24Z</time>
      </trkpt>
      <trkpt lat="46.6634" lon="-0.91788">
        <ele>65</ele>
        <time>2024-01-09T17:50:29Z</time>
      </trkpt>
      <trkpt lat="46.66323" lon="-0.91787">
        <ele>64</ele>
        <time>2024-01-09T17:50:32Z</time>
      </trkpt>
      <trkpt lat="46.66304" lon="-0.91779">
        <ele>63</ele>
        <time>2024-01-09T17:50:35Z</time>
      </trkpt>
      <trkpt lat="46.6628" lon="-0.9176">
        <ele>62</ele>
        <time>2024-01-09T17:50:40Z</time>
      </trkpt>
      <trkpt lat="46.66266" lon="-0.91745">
        <ele>61</ele>
        <time>2024-01-09T17:50:43Z</time>
      </trkpt>
      <trkpt lat="46.66231" lon="-0.91687">
        <ele>60</ele>
        <time>2024-01-09T17:50:53Z</time>
      </trkpt>
      <trkpt lat="46.6621" lon="-0.9166">
        <ele>59</ele>
        <time>2024-01-09T17:50:58Z</time>
      </trkpt>
      <trkpt lat="46.6618" lon="-0.9164">
        <ele>58</ele>
        <time>2024-01-09T17:51:03Z</time>
      </trkpt>
      <trkpt lat="46.66155" lon="-0.91636">
        <ele>58</ele>
        <time>2024-01-09T17:51:08Z</time>
      </trkpt>
      <trkpt lat="46.66134" lon="-0.91639">
        <ele>58</ele>
        <time>2024-01-09T17:51:12Z</time>
      </trkpt>
      <trkpt lat="46.66085" lon="-0.9165">
        <ele>60</ele>
        <time>2024-01-09T17:51:21Z</time>
      </trkpt>
      <trkpt lat="46.66021" lon="-0.91702">
        <ele>63</ele>
        <time>2024-01-09T17:51:34Z</time>
      </trkpt>
      <trkpt lat="46.6596" lon="-0.91737">
        <ele>63</ele>
        <time>2024-01-09T17:51:45Z</time>
      </trkpt>
      <trkpt lat="46.65945" lon="-0.91741">
        <ele>63</ele>
        <time>2024-01-09T17:51:48Z</time>
      </trkpt>
      <trkpt lat="46.65931" lon="-0.9174">
        <ele>63</ele>
        <time>2024-01-09T17:51:50Z</time>
      </trkpt>
      <trkpt lat="46.65929" lon="-0.91763">
        <ele>63</ele>
        <time>2024-01-09T17:51:53Z</time>
      </trkpt>
      <trkpt lat="46.65876" lon="-0.91814">
        <ele>63</ele>
        <time>2024-01-09T17:52:05Z</time>
      </trkpt>
      <trkpt lat="46.65837" lon="-0.9186">
        <ele>65</ele>
        <time>2024-01-09T17:52:13Z</time>
      </trkpt>
      <trkpt lat="46.65798" lon="-0.91912">
        <ele>69</ele>
        <time>2024-01-09T17:52:23Z</time>
      </trkpt>
      <trkpt lat="46.65754" lon="-0.91962">
        <ele>74</ele>
        <time>2024-01-09T17:52:33Z</time>
      </trkpt>
      <trkpt lat="46.6575" lon="-0.91955">
        <ele>74</ele>
        <time>2024-01-09T17:52:34Z</time>
      </trkpt>
      <trkpt lat="46.65739" lon="-0.91949">
        <ele>74</ele>
        <time>2024-01-09T17:52:36Z</time>
      </trkpt>
      <trkpt lat="46.6574" lon="-0.91961">
        <ele>74</ele>
        <time>2024-01-09T17:52:37Z</time>
      </trkpt>
      <trkpt lat="46.6574" lon="-0.9201">
        <ele>75</ele>
        <time>2024-01-09T17:52:43Z</time>
      </trkpt>
      <trkpt lat="46.65735" lon="-0.92154">
        <ele>74</ele>
        <time>2024-01-09T17:53:01Z</time>
      </trkpt>
      <trkpt lat="46.65735" lon="-0.92224">
        <ele>73</ele>
        <time>2024-01-09T17:53:10Z</time>
      </trkpt>
      <trkpt lat="46.65747" lon="-0.92422">
        <ele>75</ele>
        <time>2024-01-09T17:53:34Z</time>
      </trkpt>
      <trkpt lat="46.65747" lon="-0.92454">
        <ele>75</ele>
        <time>2024-01-09T17:53:38Z</time>
      </trkpt>
      <trkpt lat="46.65733" lon="-0.92627">
        <ele>72</ele>
        <time>2024-01-09T17:53:59Z</time>
      </trkpt>
      <trkpt lat="46.65727" lon="-0.92674">
        <ele>70</ele>
        <time>2024-01-09T17:54:05Z</time>
      </trkpt>
      <trkpt lat="46.65697" lon="-0.92821">
        <ele>66</ele>
        <time>2024-01-09T17:54:24Z</time>
      </trkpt>
      <trkpt lat="46.65677" lon="-0.92883">
        <ele>64</ele>
        <time>2024-01-09T17:54:32Z</time>
      </trkpt>
      <trkpt lat="46.65497" lon="-0.93284">
        <ele>52</ele>
        <time>2024-01-09T17:55:31Z</time>
      </trkpt>
      <trkpt lat="46.65391" lon="-0.93501">
        <ele>51</ele>
        <time>2024-01-09T17:56:03Z</time>
      </trkpt>
      <trkpt lat="46.65386" lon="-0.93512">
        <ele>51</ele>
        <time>2024-01-09T17:56:05Z</time>
      </trkpt>
      <trkpt lat="46.65379" lon="-0.93527">
        <ele>51</ele>
        <time>2024-01-09T17:56:07Z</time>
      </trkpt>
      <trkpt lat="46.65371" lon="-0.9355">
        <ele>51</ele>
        <time>2024-01-09T17:56:10Z</time>
      </trkpt>
      <trkpt lat="46.65242" lon="-0.93992">
        <ele>60</ele>
        <time>2024-01-09T17:57:09Z</time>
      </trkpt>
      <trkpt lat="46.65134" lon="-0.93988">
        <ele>56</ele>
        <time>2024-01-09T17:57:28Z</time>
      </trkpt>
      <trkpt lat="46.65095" lon="-0.93977">
        <ele>55</ele>
        <time>2024-01-09T17:57:35Z</time>
      </trkpt>
      <trkpt lat="46.65083" lon="-0.93976">
        <ele>55</ele>
        <time>2024-01-09T17:57:37Z</time>
      </trkpt>
      <trkpt lat="46.65039" lon="-0.9399">
        <ele>56</ele>
        <time>2024-01-09T17:57:45Z</time>
      </trkpt>
      <trkpt lat="46.65025" lon="-0.93989">
        <ele>56</ele>
        <time>2024-01-09T17:57:48Z</time>
      </trkpt>
      <trkpt lat="46.65013" lon="-0.93983">
        <ele>56</ele>
        <time>2024-01-09T17:57:50Z</time>
      </trkpt>
      <trkpt lat="46.64989" lon="-0.93954">
        <ele>55</ele>
        <time>2024-01-09T17:57:55Z</time>
      </trkpt>
      <trkpt lat="46.64948" lon="-0.93897">
        <ele>55</ele>
        <time>2024-01-09T17:58:06Z</time>
      </trkpt>
      <trkpt lat="46.64907" lon="-0.93853">
        <ele>56</ele>
        <time>2024-01-09T17:58:15Z</time>
      </trkpt>
      <trkpt lat="46.64889" lon="-0.9384">
        <ele>57</ele>
        <time>2024-01-09T17:58:18Z</time>
      </trkpt>
      <trkpt lat="46.64854" lon="-0.93798">
        <ele>59</ele>
        <time>2024-01-09T17:58:26Z</time>
      </trkpt>
      <trkpt lat="46.64825" lon="-0.93766">
        <ele>61</ele>
        <time>2024-01-09T17:58:33Z</time>
      </trkpt>
      <trkpt lat="46.64812" lon="-0.93755">
        <ele>61</ele>
        <time>2024-01-09T17:58:35Z</time>
      </trkpt>
      <trkpt lat="46.64796" lon="-0.93749">
        <ele>61</ele>
        <time>2024-01-09T17:58:38Z</time>
      </trkpt>
      <trkpt lat="46.64786" lon="-0.93752">
        <ele>61</ele>
        <time>2024-01-09T17:58:40Z</time>
      </trkpt>
      <trkpt lat="46.64775" lon="-0.9376">
        <ele>61</ele>
        <time>2024-01-09T17:58:42Z</time>
      </trkpt>
      <trkpt lat="46.64746" lon="-0.93792">
        <ele>62</ele>
        <time>2024-01-09T17:58:49Z</time>
      </trkpt>
      <trkpt lat="46.64691" lon="-0.93857">
        <ele>63</ele>
        <time>2024-01-09T17:59:01Z</time>
      </trkpt>
      <trkpt lat="46.64652" lon="-0.93913">
        <ele>64</ele>
        <time>2024-01-09T17:59:11Z</time>
      </trkpt>
      <trkpt lat="46.64623" lon="-0.93951">
        <ele>64</ele>
        <time>2024-01-09T17:59:18Z</time>
      </trkpt>
      <trkpt lat="46.64592" lon="-0.93985">
        <ele>65</ele>
        <time>2024-01-09T17:59:25Z</time>
      </trkpt>
      <trkpt lat="46.64453" lon="-0.94084">
        <ele>67</ele>
        <time>2024-01-09T17:59:53Z</time>
      </trkpt>
      <trkpt lat="46.64445" lon="-0.94084">
        <ele>67</ele>
        <time>2024-01-09T17:59:54Z</time>
      </trkpt>
      <trkpt lat="46.64437" lon="-0.94079">
        <ele>67</ele>
        <time>2024-01-09T17:59:55Z</time>
      </trkpt>
      <trkpt lat="46.64427" lon="-0.94069">
        <ele>67</ele>
        <time>2024-01-09T17:59:58Z</time>
      </trkpt>
      <trkpt lat="46.64394" lon="-0.94026">
        <ele>66</ele>
        <time>2024-01-09T18:00:06Z</time>
      </trkpt>
      <trkpt lat="46.64319" lon="-0.93949">
        <ele>62</ele>
        <time>2024-01-09T18:00:22Z</time>
      </trkpt>
      <trkpt lat="46.64258" lon="-0.93893">
        <ele>60</ele>
        <time>2024-01-09T18:00:35Z</time>
      </trkpt>
      <trkpt lat="46.6422" lon="-0.93869">
        <ele>59</ele>
        <time>2024-01-09T18:00:42Z</time>
      </trkpt>
      <trkpt lat="46.64193" lon="-0.93856">
        <ele>59</ele>
        <time>2024-01-09T18:00:47Z</time>
      </trkpt>
      <trkpt lat="46.6417" lon="-0.9385">
        <ele>59</ele>
        <time>2024-01-09T18:00:51Z</time>
      </trkpt>
      <trkpt lat="46.64152" lon="-0.9385">
        <ele>60</ele>
        <time>2024-01-09T18:00:54Z</time>
      </trkpt>
      <trkpt lat="46.64116" lon="-0.93855">
        <ele>62</ele>
        <time>2024-01-09T18:01:01Z</time>
      </trkpt>
      <trkpt lat="46.64084" lon="-0.93865">
        <ele>64</ele>
        <time>2024-01-09T18:01:07Z</time>
      </trkpt>
      <trkpt lat="46.64059" lon="-0.93878">
        <ele>64</ele>
        <time>2024-01-09T18:01:11Z</time>
      </trkpt>
      <trkpt lat="46.64004" lon="-0.93922">
        <ele>67</ele>
        <time>2024-01-09T18:01:23Z</time>
      </trkpt>
      <trkpt lat="46.63911" lon="-0.93964">
        <ele>68</ele>
        <time>2024-01-09T18:01:40Z</time>
      </trkpt>
      <trkpt lat="46.63876" lon="-0.93982">
        <ele>71</ele>
        <time>2024-01-09T18:01:47Z</time>
      </trkpt>
      <trkpt lat="46.63853" lon="-0.93998">
        <ele>73</ele>
        <time>2024-01-09T18:01:51Z</time>
      </trkpt>
      <trkpt lat="46.63835" lon="-0.94006">
        <ele>75</ele>
        <time>2024-01-09T18:01:54Z</time>
      </trkpt>
      <trkpt lat="46.63818" lon="-0.94007">
        <ele>77</ele>
        <time>2024-01-09T18:01:57Z</time>
      </trkpt>
      <trkpt lat="46.63807" lon="-0.94002">
        <ele>79</ele>
        <time>2024-01-09T18:02:00Z</time>
      </trkpt>
      <trkpt lat="46.6376" lon="-0.9397">
        <ele>84</ele>
        <time>2024-01-09T18:02:09Z</time>
      </trkpt>
      <trkpt lat="46.6373" lon="-0.93954">
        <ele>86</ele>
        <time>2024-01-09T18:02:14Z</time>
      </trkpt>
      <trkpt lat="46.63716" lon="-0.93951">
        <ele>87</ele>
        <time>2024-01-09T18:02:17Z</time>
      </trkpt>
      <trkpt lat="46.63703" lon="-0.93952">
        <ele>87</ele>
        <time>2024-01-09T18:02:19Z</time>
      </trkpt>
      <trkpt lat="46.63667" lon="-0.9397">
        <ele>90</ele>
        <time>2024-01-09T18:02:26Z</time>
      </trkpt>
      <trkpt lat="46.63616" lon="-0.94014">
        <ele>94</ele>
        <time>2024-01-09T18:02:37Z</time>
      </trkpt>
      <trkpt lat="46.63583" lon="-0.94036">
        <ele>95</ele>
        <time>2024-01-09T18:02:43Z</time>
      </trkpt>
      <trkpt lat="46.63591" lon="-0.94051">
        <ele>94.4</ele>
      </trkpt>
      <trkpt lat="46.63601" lon="-0.94093">
        <ele>92.4</ele>
      </trkpt>
      <trkpt lat="46.63617" lon="-0.94132">
        <ele>90.1</ele>
      </trkpt>
      <trkpt lat="46.6364" lon="-0.94176">
        <ele>88</ele>
      </trkpt>
      <trkpt lat="46.63646" lon="-0.9419">
        <ele>88</ele>
      </trkpt>
      <trkpt lat="46.63654" lon="-0.94235">
        <ele>90.2</ele>
      </trkpt>
      <trkpt lat="46.63679" lon="-0.94325">
        <ele>94.1</ele>
      </trkpt>
      <trkpt lat="46.63711" lon="-0.94425">
        <ele>98.5</ele>
      </trkpt>
      <trkpt lat="46.6377" lon="-0.94551">
        <ele>98.3</ele>
      </trkpt>
      <trkpt lat="46.63813" lon="-0.94632">
        <ele>94.3</ele>
      </trkpt>
      <trkpt lat="46.63896" lon="-0.9479">
        <ele>84.9</ele>
      </trkpt>
      <trkpt lat="46.63938" lon="-0.9487">
        <ele>85.7</ele>
      </trkpt>
      <trkpt lat="46.63961" lon="-0.9492">
        <ele>89.1</ele>
      </trkpt>
      <trkpt lat="46.63975" lon="-0.94965">
        <ele>91.1</ele>
      </trkpt>
      <trkpt lat="46.6399" lon="-0.95032">
        <ele>96.7</ele>
      </trkpt>
      <trkpt lat="46.64006" lon="-0.95119">
        <ele>98.4</ele>
      </trkpt>
      <trkpt lat="46.64004" lon="-0.95266">
        <ele>94.4</ele>
      </trkpt>
      <trkpt lat="46.63985" lon="-0.95428">
        <ele>94.1</ele>
      </trkpt>
      <trkpt lat="46.63974" lon="-0.95529">
        <ele>99.1</ele>
      </trkpt>
      <trkpt lat="46.63953" lon="-0.95604">
        <ele>102.8</ele>
      </trkpt>
      <trkpt lat="46.63929" lon="-0.95653">
        <ele>105</ele>
      </trkpt>
      <trkpt lat="46.63921" lon="-0.95688">
        <ele>106.9</ele>
      </trkpt>
      <trkpt lat="46.63927" lon="-0.95736">
        <ele>109.5</ele>
      </trkpt>
      <trkpt lat="46.63948" lon="-0.95786">
        <ele>111</ele>
      </trkpt>
      <trkpt lat="46.63971" lon="-0.95832">
        <ele>112.1</ele>
      </trkpt>
      <trkpt lat="46.6399" lon="-0.9591">
        <ele>115</ele>
      </trkpt>
      <trkpt lat="46.64012" lon="-0.95971">
        <ele>115</ele>
      </trkpt>
      <trkpt lat="46.64058" lon="-0.96042">
        <ele>114.5</ele>
      </trkpt>
      <trkpt lat="46.64109" lon="-0.96095">
        <ele>112.6</ele>
      </trkpt>
      <trkpt lat="46.64175" lon="-0.96166">
        <ele>107.7</ele>
      </trkpt>
      <trkpt lat="46.64226" lon="-0.96222">
        <ele>103.1</ele>
      </trkpt>
      <trkpt lat="46.64264" lon="-0.96277">
        <ele>101</ele>
      </trkpt>
      <trkpt lat="46.64294" lon="-0.9632">
        <ele>99</ele>
      </trkpt>
      <trkpt lat="46.64312" lon="-0.96347">
        <ele>97.5</ele>
      </trkpt>
      <trkpt lat="46.64331" lon="-0.96401">
        <ele>96.1</ele>
      </trkpt>
      <trkpt lat="46.6434" lon="-0.96457">
        <ele>96.3</ele>
      </trkpt>
      <trkpt lat="46.64338" lon="-0.96545">
        <ele>101.4</ele>
      </trkpt>
      <trkpt lat="46.64335" lon="-0.9663">
        <ele>103</ele>
      </trkpt>
      <trkpt lat="46.64345" lon="-0.96692">
        <ele>102.1</ele>
      </trkpt>
      <trkpt lat="46.64363" lon="-0.96749">
        <ele>100</ele>
      </trkpt>
      <trkpt lat="46.64415" lon="-0.9682">
        <ele>95.5</ele>
      </trkpt>
      <trkpt lat="46.6444" lon="-0.96861">
        <ele>96</ele>
      </trkpt>
      <trkpt lat="46.64473" lon="-0.96933">
        <ele>96</ele>
      </trkpt>
      <trkpt lat="46.64493" lon="-0.96988">
        <ele>96.4</ele>
      </trkpt>
      <trkpt lat="46.64502" lon="-0.97009">
        <ele>97</ele>
      </trkpt>
      <trkpt lat="46.64508" lon="-0.9704">
        <ele>97.9</ele>
      </trkpt>
      <trkpt lat="46.64512" lon="-0.97073">
        <ele>99.1</ele>
      </trkpt>
      <trkpt lat="46.64507" lon="-0.97137">
        <ele>101.6</ele>
      </trkpt>
      <trkpt lat="46.64496" lon="-0.9723">
        <ele>105.3</ele>
      </trkpt>
      <trkpt lat="46.64506" lon="-0.97307">
        <ele>109.1</ele>
      </trkpt>
      <trkpt lat="46.64525" lon="-0.9737">
        <ele>110.4</ele>
      </trkpt>
      <trkpt lat="46.64538" lon="-0.97402">
        <ele>111.1</ele>
      </trkpt>
      <trkpt lat="46.64553" lon="-0.97425">
        <ele>110.2</ele>
      </trkpt>
      <trkpt lat="46.6457" lon="-0.97432">
        <ele>109.2</ele>
      </trkpt>
      <trkpt lat="46.64582" lon="-0.97433">
        <ele>108.5</ele>
      </trkpt>
      <trkpt lat="46.64621" lon="-0.97438">
        <ele>106.5</ele>
      </trkpt>
      <trkpt lat="46.64651" lon="-0.97454">
        <ele>104.2</ele>
      </trkpt>
      <trkpt lat="46.64675" lon="-0.97485">
        <ele>102.6</ele>
      </trkpt>
      <trkpt lat="46.64742" lon="-0.97606">
        <ele>99</ele>
      </trkpt>
      <trkpt lat="46.64824" lon="-0.9775">
        <ele>98.3</ele>
      </trkpt>
      <trkpt lat="46.64888" lon="-0.97872">
        <ele>97.7</ele>
      </trkpt>
      <trkpt lat="46.64917" lon="-0.97931">
        <ele>95.5</ele>
      </trkpt>
      <trkpt lat="46.64938" lon="-0.97973">
        <ele>94.2</ele>
      </trkpt>
      <trkpt lat="46.64957" lon="-0.9799">
        <ele>94.2</ele>
      </trkpt>
      <trkpt lat="46.6498" lon="-0.98">
        <ele>93.7</ele>
      </trkpt>
      <trkpt lat="46.65027" lon="-0.98002">
        <ele>92.1</ele>
      </trkpt>
      <trkpt lat="46.65074" lon="-0.97999">
        <ele>92</ele>
      </trkpt>
      <trkpt lat="46.65159" lon="-0.97999">
        <ele>92</ele>
      </trkpt>
      <trkpt lat="46.65219" lon="-0.97999">
        <ele>92</ele>
      </trkpt>
      <trkpt lat="46.65246" lon="-0.98007">
        <ele>92.2</ele>
      </trkpt>
      <trkpt lat="46.65283" lon="-0.98023">
        <ele>89.4</ele>
      </trkpt>
      <trkpt lat="46.65328" lon="-0.98049">
        <ele>85.7</ele>
      </trkpt>
      <trkpt lat="46.65407" lon="-0.981">
        <ele>80.9</ele>
      </trkpt>
      <trkpt lat="46.6545" lon="-0.98132">
        <ele>78.1</ele>
      </trkpt>
      <trkpt lat="46.65476" lon="-0.98159">
        <ele>76.6</ele>
      </trkpt>
      <trkpt lat="46.65498" lon="-0.98206">
        <ele>74.6</ele>
      </trkpt>
      <trkpt lat="46.65514" lon="-0.98257">
        <ele>72.3</ele>
      </trkpt>
      <trkpt lat="46.65533" lon="-0.98333">
        <ele>69</ele>
      </trkpt>
      <trkpt lat="46.65553" lon="-0.9837">
        <ele>67</ele>
      </trkpt>
      <trkpt lat="46.6558" lon="-0.98403">
        <ele>64.4</ele>
      </trkpt>
      <trkpt lat="46.65612" lon="-0.9844">
        <ele>62.2</ele>
      </trkpt>
      <trkpt lat="46.65638" lon="-0.9848">
        <ele>59.7</ele>
      </trkpt>
      <trkpt lat="46.65657" lon="-0.98524">
        <ele>57.6</ele>
      </trkpt>
      <trkpt lat="46.65671" lon="-0.98571">
        <ele>55.3</ele>
      </trkpt>
      <trkpt lat="46.6568" lon="-0.98622">
        <ele>51.5</ele>
      </trkpt>
      <trkpt lat="46.65682" lon="-0.98659">
        <ele>52.2</ele>
      </trkpt>
      <trkpt lat="46.65671" lon="-0.98695">
        <ele>55.7</ele>
      </trkpt>
      <trkpt lat="46.65643" lon="-0.98731">
        <ele>58.6</ele>
      </trkpt>
      <trkpt lat="46.65613" lon="-0.98772">
        <ele>61.4</ele>
      </trkpt>
      <trkpt lat="46.65588" lon="-0.98835">
        <ele>65.2</ele>
      </trkpt>
      <trkpt lat="46.65579" lon="-0.98922">
        <ele>68.7</ele>
      </trkpt>
      <trkpt lat="46.65584" lon="-0.98969">
        <ele>70.9</ele>
      </trkpt>
      <trkpt lat="46.656" lon="-0.98999">
        <ele>73.8</ele>
      </trkpt>
      <trkpt lat="46.6562" lon="-0.99013">
        <ele>76.2</ele>
      </trkpt>
      <trkpt lat="46.65643" lon="-0.99023">
        <ele>77.4</ele>
      </trkpt>
      <trkpt lat="46.65672" lon="-0.99023">
        <ele>79.3</ele>
      </trkpt>
      <trkpt lat="46.65687" lon="-0.9903">
        <ele>80.6</ele>
      </trkpt>
      <trkpt lat="46.6571" lon="-0.99064">
        <ele>80.9</ele>
      </trkpt>
      <trkpt lat="46.65721" lon="-0.99085">
        <ele>81.1</ele>
      </trkpt>
      <trkpt lat="46.6573" lon="-0.99115">
        <ele>81.9</ele>
      </trkpt>
      <trkpt lat="46.65731" lon="-0.99148">
        <ele>83.3</ele>
      </trkpt>
      <trkpt lat="46.65724" lon="-0.99181">
        <ele>83.5</ele>
      </trkpt>
      <trkpt lat="46.6572" lon="-0.99196">
        <ele>82</ele>
        <time>2024-01-09T18:58:50Z</time>
      </trkpt>
      <trkpt lat="46.65707" lon="-0.99245">
        <ele>82</ele>
        <time>2024-01-09T18:58:57Z</time>
      </trkpt>
      <trkpt lat="46.65705" lon="-0.99278">
        <ele>81</ele>
        <time>2024-01-09T18:59:01Z</time>
      </trkpt>
      <trkpt lat="46.65707" lon="-0.99298">
        <ele>80</ele>
        <time>2024-01-09T18:59:03Z</time>
      </trkpt>
      <trkpt lat="46.65713" lon="-0.99312">
        <ele>79</ele>
        <time>2024-01-09T18:59:05Z</time>
      </trkpt>
      <trkpt lat="46.65723" lon="-0.99328">
        <ele>78</ele>
        <time>2024-01-09T18:59:08Z</time>
      </trkpt>
      <trkpt lat="46.65739" lon="-0.99342">
        <ele>76</ele>
        <time>2024-01-09T18:59:11Z</time>
      </trkpt>
      <trkpt lat="46.65858" lon="-0.99415">
        <ele>64</ele>
        <time>2024-01-09T18:59:34Z</time>
      </trkpt>
      <trkpt lat="46.65888" lon="-0.99428">
        <ele>62</ele>
        <time>2024-01-09T18:59:40Z</time>
      </trkpt>
      <trkpt lat="46.65936" lon="-0.99434">
        <ele>59</ele>
        <time>2024-01-09T18:59:48Z</time>
      </trkpt>
      <trkpt lat="46.65952" lon="-0.99438">
        <ele>58</ele>
        <time>2024-01-09T18:59:51Z</time>
      </trkpt>
      <trkpt lat="46.65974" lon="-0.99448">
        <ele>57</ele>
        <time>2024-01-09T18:59:55Z</time>
      </trkpt>
      <trkpt lat="46.65986" lon="-0.99459">
        <ele>56</ele>
        <time>2024-01-09T18:59:58Z</time>
      </trkpt>
      <trkpt lat="46.65995" lon="-0.9947">
        <ele>55</ele>
        <time>2024-01-09T19:00:00Z</time>
      </trkpt>
      <trkpt lat="46.66004" lon="-0.99486">
        <ele>54</ele>
        <time>2024-01-09T19:00:03Z</time>
      </trkpt>
      <trkpt lat="46.66012" lon="-0.99506">
        <ele>53</ele>
        <time>2024-01-09T19:00:05Z</time>
      </trkpt>
      <trkpt lat="46.66018" lon="-0.99531">
        <ele>52</ele>
        <time>2024-01-09T19:00:09Z</time>
      </trkpt>
      <trkpt lat="46.6603" lon="-0.99602">
        <ele>49</ele>
        <time>2024-01-09T19:00:18Z</time>
      </trkpt>
      <trkpt lat="46.66043" lon="-0.99725">
        <ele>48</ele>
        <time>2024-01-09T19:00:33Z</time>
      </trkpt>
      <trkpt lat="46.66049" lon="-0.99748">
        <ele>48</ele>
        <time>2024-01-09T19:00:36Z</time>
      </trkpt>
      <trkpt lat="46.66063" lon="-0.99782">
        <ele>48</ele>
        <time>2024-01-09T19:00:41Z</time>
      </trkpt>
      <trkpt lat="46.6608" lon="-0.99812">
        <ele>47</ele>
        <time>2024-01-09T19:00:45Z</time>
      </trkpt>
      <trkpt lat="46.66095" lon="-0.99836">
        <ele>46</ele>
        <time>2024-01-09T19:00:49Z</time>
      </trkpt>
      <trkpt lat="46.66149" lon="-0.99893">
        <ele>43</ele>
        <time>2024-01-09T19:01:01Z</time>
      </trkpt>
      <trkpt lat="46.66163" lon="-0.99912">
        <ele>42</ele>
        <time>2024-01-09T19:01:05Z</time>
      </trkpt>
      <trkpt lat="46.66172" lon="-0.99931">
        <ele>42</ele>
        <time>2024-01-09T19:01:07Z</time>
      </trkpt>
      <trkpt lat="46.66184" lon="-0.99966">
        <ele>41</ele>
        <time>2024-01-09T19:01:12Z</time>
      </trkpt>
      <trkpt lat="46.66198" lon="-1.00032">
        <ele>40</ele>
        <time>2024-01-09T19:01:21Z</time>
      </trkpt>
      <trkpt lat="46.66205" lon="-1.00056">
        <ele>40</ele>
        <time>2024-01-09T19:01:24Z</time>
      </trkpt>
      <trkpt lat="46.66217" lon="-1.00084">
        <ele>39</ele>
        <time>2024-01-09T19:01:28Z</time>
      </trkpt>
      <trkpt lat="46.66359" lon="-1.0032">
        <ele>38</ele>
        <time>2024-01-09T19:02:06Z</time>
      </trkpt>
      <trkpt lat="46.6638" lon="-1.00357">
        <ele>39</ele>
        <time>2024-01-09T19:02:12Z</time>
      </trkpt>
      <trkpt lat="46.6646" lon="-1.00481">
        <ele>45</ele>
        <time>2024-01-09T19:02:33Z</time>
      </trkpt>
      <trkpt lat="46.66484" lon="-1.00511">
        <ele>47</ele>
        <time>2024-01-09T19:02:38Z</time>
      </trkpt>
      <trkpt lat="46.66535" lon="-1.00554">
        <ele>50</ele>
        <time>2024-01-09T19:02:49Z</time>
      </trkpt>
      <trkpt lat="46.66633" lon="-1.00628">
        <ele>53</ele>
        <time>2024-01-09T19:03:09Z</time>
      </trkpt>
      <trkpt lat="46.66695" lon="-1.00524">
        <ele>52</ele>
        <time>2024-01-09T19:03:25Z</time>
      </trkpt>
      <trkpt lat="46.66707" lon="-1.00496">
        <ele>52</ele>
        <time>2024-01-09T19:03:29Z</time>
      </trkpt>
      <trkpt lat="46.6671" lon="-1.00484">
        <ele>52</ele>
        <time>2024-01-09T19:03:31Z</time>
      </trkpt>
      <trkpt lat="46.66712" lon="-1.00464">
        <ele>52</ele>
        <time>2024-01-09T19:03:33Z</time>
      </trkpt>
      <trkpt lat="46.66708" lon="-1.00427">
        <ele>51</ele>
        <time>2024-01-09T19:03:38Z</time>
      </trkpt>
      <trkpt lat="46.66709" lon="-1.00399">
        <ele>51</ele>
        <time>2024-01-09T19:03:41Z</time>
      </trkpt>
      <trkpt lat="46.66712" lon="-1.00383">
        <ele>51</ele>
        <time>2024-01-09T19:03:44Z</time>
      </trkpt>
      <trkpt lat="46.66718" lon="-1.00371">
        <ele>51</ele>
        <time>2024-01-09T19:03:45Z</time>
      </trkpt>
      <trkpt lat="46.66735" lon="-1.00346">
        <ele>52</ele>
        <time>2024-01-09T19:03:50Z</time>
      </trkpt>
      <trkpt lat="46.6676" lon="-1.00317">
        <ele>53</ele>
        <time>2024-01-09T19:03:55Z</time>
      </trkpt>
      <trkpt lat="46.66871" lon="-1.00198">
        <ele>58</ele>
        <time>2024-01-09T19:04:20Z</time>
      </trkpt>
      <trkpt lat="46.6695" lon="-1.00121">
        <ele>61</ele>
        <time>2024-01-09T19:04:37Z</time>
      </trkpt>
      <trkpt lat="46.67014" lon="-1.00051">
        <ele>62</ele>
        <time>2024-01-09T19:04:51Z</time>
      </trkpt>
      <trkpt lat="46.67076" lon="-0.99972">
        <ele>63</ele>
        <time>2024-01-09T19:05:06Z</time>
      </trkpt>
      <trkpt lat="46.67127" lon="-0.99908">
        <ele>57</ele>
        <time>2024-01-09T19:05:18Z</time>
      </trkpt>
      <trkpt lat="46.67233" lon="-0.99754">
        <ele>48</ele>
        <time>2024-01-09T19:05:44Z</time>
      </trkpt>
      <trkpt lat="46.67261" lon="-0.99703">
        <ele>48</ele>
        <time>2024-01-09T19:05:52Z</time>
      </trkpt>
      <trkpt lat="46.67292" lon="-0.99636">
        <ele>49</ele>
        <time>2024-01-09T19:06:02Z</time>
      </trkpt>
      <trkpt lat="46.67306" lon="-0.99614">
        <ele>49</ele>
        <time>2024-01-09T19:06:06Z</time>
      </trkpt>
      <trkpt lat="46.67378" lon="-0.99536">
        <ele>49</ele>
        <time>2024-01-09T19:06:22Z</time>
      </trkpt>
      <trkpt lat="46.67463" lon="-0.99446">
        <ele>52</ele>
        <time>2024-01-09T19:06:40Z</time>
      </trkpt>
      <trkpt lat="46.67488" lon="-0.99432">
        <ele>53</ele>
        <time>2024-01-09T19:06:45Z</time>
      </trkpt>
      <trkpt lat="46.67524" lon="-0.99415">
        <ele>54</ele>
        <time>2024-01-09T19:06:52Z</time>
      </trkpt>
      <trkpt lat="46.67552" lon="-0.99394">
        <ele>54</ele>
        <time>2024-01-09T19:06:57Z</time>
      </trkpt>
      <trkpt lat="46.67654" lon="-0.99295">
        <ele>54</ele>
        <time>2024-01-09T19:07:19Z</time>
      </trkpt>
      <trkpt lat="46.67678" lon="-0.99256">
        <ele>53</ele>
        <time>2024-01-09T19:07:26Z</time>
      </trkpt>
      <trkpt lat="46.67696" lon="-0.9923">
        <ele>51</ele>
        <time>2024-01-09T19:07:30Z</time>
      </trkpt>
      <trkpt lat="46.67719" lon="-0.99204">
        <ele>49</ele>
        <time>2024-01-09T19:07:35Z</time>
      </trkpt>
      <trkpt lat="46.6773" lon="-0.99187">
        <ele>48</ele>
        <time>2024-01-09T19:07:38Z</time>
      </trkpt>
      <trkpt lat="46.67736" lon="-0.99171">
        <ele>47</ele>
        <time>2024-01-09T19:07:40Z</time>
      </trkpt>
      <trkpt lat="46.67752" lon="-0.99094">
        <ele>43</ele>
        <time>2024-01-09T19:07:50Z</time>
      </trkpt>
      <trkpt lat="46.67758" lon="-0.99074">
        <ele>42</ele>
        <time>2024-01-09T19:07:53Z</time>
      </trkpt>
      <trkpt lat="46.67764" lon="-0.99066">
        <ele>42</ele>
        <time>2024-01-09T19:07:54Z</time>
      </trkpt>
      <trkpt lat="46.67774" lon="-0.99103">
        <ele>43</ele>
        <time>2024-01-09T19:07:59Z</time>
      </trkpt>
      <trkpt lat="46.67796" lon="-0.99171">
        <ele>44</ele>
        <time>2024-01-09T19:08:08Z</time>
      </trkpt>
      <trkpt lat="46.67808" lon="-0.99201">
        <ele>45</ele>
        <time>2024-01-09T19:08:13Z</time>
      </trkpt>
      <trkpt lat="46.67826" lon="-0.9925">
        <ele>46</ele>
        <time>2024-01-09T19:08:19Z</time>
      </trkpt>
      <trkpt lat="46.67863" lon="-0.99333">
        <ele>48</ele>
        <time>2024-01-09T19:08:32Z</time>
      </trkpt>
      <trkpt lat="46.67886" lon="-0.99378">
        <ele>48</ele>
        <time>2024-01-09T19:08:38Z</time>
      </trkpt>
      <trkpt lat="46.67921" lon="-0.99438">
        <ele>48</ele>
        <time>2024-01-09T19:08:48Z</time>
      </trkpt>
      <trkpt lat="46.67942" lon="-0.99469">
        <ele>48</ele>
        <time>2024-01-09T19:08:53Z</time>
      </trkpt>
      <trkpt lat="46.68054" lon="-0.99622">
        <ele>49</ele>
        <time>2024-01-09T19:09:21Z</time>
      </trkpt>
      <trkpt lat="46.68095" lon="-0.9969">
        <ele>53</ele>
        <time>2024-01-09T19:09:32Z</time>
      </trkpt>
      <trkpt lat="46.68124" lon="-0.99746">
        <ele>56</ele>
        <time>2024-01-09T19:09:40Z</time>
      </trkpt>
      <trkpt lat="46.68139" lon="-0.99786">
        <ele>57</ele>
        <time>2024-01-09T19:09:46Z</time>
      </trkpt>
      <trkpt lat="46.68149" lon="-0.99784">
        <ele>56</ele>
        <time>2024-01-09T19:09:48Z</time>
      </trkpt>
      <trkpt lat="46.68156" lon="-0.99787">
        <ele>56</ele>
        <time>2024-01-09T19:09:49Z</time>
      </trkpt>
      <trkpt lat="46.68156" lon="-0.99802">
        <ele>57</ele>
        <time>2024-01-09T19:09:51Z</time>
      </trkpt>
      <trkpt lat="46.68174" lon="-0.99859">
        <ele>59</ele>
        <time>2024-01-09T19:09:58Z</time>
      </trkpt>
      <trkpt lat="46.6819" lon="-0.99917">
        <ele>61</ele>
        <time>2024-01-09T19:10:06Z</time>
      </trkpt>
      <trkpt lat="46.68201" lon="-0.9993">
        <ele>61</ele>
        <time>2024-01-09T19:10:09Z</time>
      </trkpt>
      <trkpt lat="46.68218" lon="-0.99946">
        <ele>61</ele>
        <time>2024-01-09T19:10:12Z</time>
      </trkpt>
      <trkpt lat="46.68229" lon="-0.99953">
        <ele>60</ele>
        <time>2024-01-09T19:10:14Z</time>
      </trkpt>
      <trkpt lat="46.68267" lon="-0.99966">
        <ele>59</ele>
        <time>2024-01-09T19:10:21Z</time>
      </trkpt>
      <trkpt lat="46.68327" lon="-1.00026">
        <ele>60</ele>
        <time>2024-01-09T19:10:34Z</time>
      </trkpt>
      <trkpt lat="46.68362" lon="-1.00051">
        <ele>58</ele>
        <time>2024-01-09T19:10:41Z</time>
      </trkpt>
      <trkpt lat="46.68455" lon="-1.00156">
        <ele>58</ele>
        <time>2024-01-09T19:11:02Z</time>
      </trkpt>
      <trkpt lat="46.68473" lon="-1.00187">
        <ele>58</ele>
        <time>2024-01-09T19:11:07Z</time>
      </trkpt>
      <trkpt lat="46.6851" lon="-1.00262">
        <ele>59</ele>
        <time>2024-01-09T19:11:18Z</time>
      </trkpt>
      <trkpt lat="46.68528" lon="-1.00284">
        <ele>60</ele>
        <time>2024-01-09T19:11:22Z</time>
      </trkpt>
      <trkpt lat="46.68562" lon="-1.00336">
        <ele>62</ele>
        <time>2024-01-09T19:11:31Z</time>
      </trkpt>
      <trkpt lat="46.6861" lon="-1.00434">
        <ele>64</ele>
        <time>2024-01-09T19:11:46Z</time>
      </trkpt>
      <trkpt lat="46.68617" lon="-1.00459">
        <ele>64</ele>
        <time>2024-01-09T19:11:49Z</time>
      </trkpt>
      <trkpt lat="46.6862" lon="-1.00507">
        <ele>64</ele>
        <time>2024-01-09T19:11:55Z</time>
      </trkpt>
      <trkpt lat="46.68621" lon="-1.00552">
        <ele>63</ele>
        <time>2024-01-09T19:12:01Z</time>
      </trkpt>
      <trkpt lat="46.68624" lon="-1.00582">
        <ele>62</ele>
        <time>2024-01-09T19:12:04Z</time>
      </trkpt>
      <trkpt lat="46.68628" lon="-1.00606">
        <ele>62</ele>
        <time>2024-01-09T19:12:07Z</time>
      </trkpt>
      <trkpt lat="46.68646" lon="-1.00662">
        <ele>62</ele>
        <time>2024-01-09T19:12:15Z</time>
      </trkpt>
      <trkpt lat="46.68669" lon="-1.00719">
        <ele>63</ele>
        <time>2024-01-09T19:12:23Z</time>
      </trkpt>
      <trkpt lat="46.68699" lon="-1.0077">
        <ele>64</ele>
        <time>2024-01-09T19:12:31Z</time>
      </trkpt>
      <trkpt lat="46.68715" lon="-1.00806">
        <ele>64</ele>
        <time>2024-01-09T19:12:36Z</time>
      </trkpt>
      <trkpt lat="46.68737" lon="-1.00877">
        <ele>66</ele>
        <time>2024-01-09T19:12:46Z</time>
      </trkpt>
      <trkpt lat="46.68787" lon="-1.00979">
        <ele>69</ele>
        <time>2024-01-09T19:13:01Z</time>
      </trkpt>
      <trkpt lat="46.68803" lon="-1.01018">
        <ele>70</ele>
        <time>2024-01-09T19:13:07Z</time>
      </trkpt>
      <trkpt lat="46.68806" lon="-1.01104">
        <ele>74</ele>
        <time>2024-01-09T19:13:17Z</time>
      </trkpt>
      <trkpt lat="46.68813" lon="-1.01121">
        <ele>74</ele>
        <time>2024-01-09T19:13:20Z</time>
      </trkpt>
      <trkpt lat="46.68826" lon="-1.01131">
        <ele>74</ele>
        <time>2024-01-09T19:13:22Z</time>
      </trkpt>
      <trkpt lat="46.68856" lon="-1.01143">
        <ele>74</ele>
        <time>2024-01-09T19:13:28Z</time>
      </trkpt>
      <trkpt lat="46.6889" lon="-1.01151">
        <ele>73</ele>
        <time>2024-01-09T19:13:34Z</time>
      </trkpt>
      <trkpt lat="46.68952" lon="-1.01156">
        <ele>69</ele>
        <time>2024-01-09T19:13:45Z</time>
      </trkpt>
      <trkpt lat="46.69035" lon="-1.0122">
        <ele>66</ele>
        <time>2024-01-09T19:14:02Z</time>
      </trkpt>
      <trkpt lat="46.69084" lon="-1.01253">
        <ele>66</ele>
        <time>2024-01-09T19:14:11Z</time>
      </trkpt>
      <trkpt lat="46.69091" lon="-1.01263">
        <ele>66</ele>
        <time>2024-01-09T19:14:13Z</time>
      </trkpt>
      <trkpt lat="46.69096" lon="-1.01274">
        <ele>67</ele>
        <time>2024-01-09T19:14:15Z</time>
      </trkpt>
      <trkpt lat="46.6912" lon="-1.01338">
        <ele>68</ele>
        <time>2024-01-09T19:14:24Z</time>
      </trkpt>
      <trkpt lat="46.69127" lon="-1.01351">
        <ele>68</ele>
        <time>2024-01-09T19:14:26Z</time>
      </trkpt>
      <trkpt lat="46.69157" lon="-1.01402">
        <ele>70</ele>
        <time>2024-01-09T19:14:34Z</time>
      </trkpt>
      <trkpt lat="46.69172" lon="-1.01432">
        <ele>70</ele>
        <time>2024-01-09T19:14:38Z</time>
      </trkpt>
      <trkpt lat="46.69182" lon="-1.01461">
        <ele>71</ele>
        <time>2024-01-09T19:14:42Z</time>
      </trkpt>
      <trkpt lat="46.6919" lon="-1.01501">
        <ele>72</ele>
        <time>2024-01-09T19:14:47Z</time>
      </trkpt>
      <trkpt lat="46.6919" lon="-1.01523">
        <ele>73</ele>
        <time>2024-01-09T19:14:50Z</time>
      </trkpt>
      <trkpt lat="46.69186" lon="-1.01556">
        <ele>74</ele>
        <time>2024-01-09T19:14:54Z</time>
      </trkpt>
      <trkpt lat="46.6915" lon="-1.01741">
        <ele>77</ele>
        <time>2024-01-09T19:15:18Z</time>
      </trkpt>
      <trkpt lat="46.69148" lon="-1.01753">
        <ele>77</ele>
        <time>2024-01-09T19:15:19Z</time>
      </trkpt>
      <trkpt lat="46.69151" lon="-1.01766">
        <ele>77</ele>
        <time>2024-01-09T19:15:21Z</time>
      </trkpt>
      <trkpt lat="46.69155" lon="-1.01773">
        <ele>77</ele>
        <time>2024-01-09T19:15:22Z</time>
      </trkpt>
      <trkpt lat="46.69159" lon="-1.01775">
        <ele>77</ele>
        <time>2024-01-09T19:15:23Z</time>
      </trkpt>
      <trkpt lat="46.69229" lon="-1.01793">
        <ele>72</ele>
        <time>2024-01-09T19:15:35Z</time>
      </trkpt>
      <trkpt lat="46.69319" lon="-1.01829">
        <ele>66</ele>
        <time>2024-01-09T19:15:52Z</time>
      </trkpt>
      <trkpt lat="46.69335" lon="-1.01832">
        <ele>65</ele>
        <time>2024-01-09T19:15:55Z</time>
      </trkpt>
      <trkpt lat="46.6936" lon="-1.01832">
        <ele>65</ele>
        <time>2024-01-09T19:15:59Z</time>
      </trkpt>
      <trkpt lat="46.69372" lon="-1.01835">
        <ele>65</ele>
        <time>2024-01-09T19:16:01Z</time>
      </trkpt>
      <trkpt lat="46.6938" lon="-1.01843">
        <ele>64</ele>
        <time>2024-01-09T19:16:03Z</time>
      </trkpt>
      <trkpt lat="46.69387" lon="-1.01856">
        <ele>64</ele>
        <time>2024-01-09T19:16:05Z</time>
      </trkpt>
      <trkpt lat="46.69405" lon="-1.01896">
        <ele>65</ele>
        <time>2024-01-09T19:16:11Z</time>
      </trkpt>
      <trkpt lat="46.69446" lon="-1.01976">
        <ele>66</ele>
        <time>2024-01-09T19:16:23Z</time>
      </trkpt>
      <trkpt lat="46.69457" lon="-1.01992">
        <ele>67</ele>
        <time>2024-01-09T19:16:26Z</time>
      </trkpt>
      <trkpt lat="46.69492" lon="-1.0203">
        <ele>68</ele>
        <time>2024-01-09T19:16:34Z</time>
      </trkpt>
      <trkpt lat="46.69524" lon="-1.0208">
        <ele>68</ele>
        <time>2024-01-09T19:16:42Z</time>
      </trkpt>
      <trkpt lat="46.69542" lon="-1.02111">
        <ele>69</ele>
        <time>2024-01-09T19:16:47Z</time>
      </trkpt>
      <trkpt lat="46.69585" lon="-1.02198">
        <ele>72</ele>
        <time>2024-01-09T19:17:00Z</time>
      </trkpt>
      <trkpt lat="46.69596" lon="-1.02213">
        <ele>73</ele>
        <time>2024-01-09T19:17:03Z</time>
      </trkpt>
      <trkpt lat="46.69608" lon="-1.02226">
        <ele>74</ele>
        <time>2024-01-09T19:17:05Z</time>
      </trkpt>
      <trkpt lat="46.6963" lon="-1.02242">
        <ele>75</ele>
        <time>2024-01-09T19:17:10Z</time>
      </trkpt>
      <trkpt lat="46.69686" lon="-1.02265">
        <ele>77</ele>
        <time>2024-01-09T19:17:20Z</time>
      </trkpt>
      <trkpt lat="46.69713" lon="-1.02283">
        <ele>78</ele>
        <time>2024-01-09T19:17:25Z</time>
      </trkpt>
      <trkpt lat="46.69735" lon="-1.02302">
        <ele>80</ele>
        <time>2024-01-09T19:17:30Z</time>
      </trkpt>
      <trkpt lat="46.69798" lon="-1.02377">
        <ele>83</ele>
        <time>2024-01-09T19:17:44Z</time>
      </trkpt>
      <trkpt lat="46.69844" lon="-1.02417">
        <ele>86</ele>
        <time>2024-01-09T19:17:54Z</time>
      </trkpt>
      <trkpt lat="46.69944" lon="-1.02506">
        <ele>85</ele>
        <time>2024-01-09T19:18:15Z</time>
      </trkpt>
      <trkpt lat="46.69956" lon="-1.02518">
        <ele>85</ele>
        <time>2024-01-09T19:18:17Z</time>
      </trkpt>
      <trkpt lat="46.69995" lon="-1.02548">
        <ele>83</ele>
        <time>2024-01-09T19:18:25Z</time>
      </trkpt>
      <trkpt lat="46.70026" lon="-1.02569">
        <ele>82</ele>
        <time>2024-01-09T19:18:31Z</time>
      </trkpt>
      <trkpt lat="46.70063" lon="-1.02587">
        <ele>80</ele>
        <time>2024-01-09T19:18:38Z</time>
      </trkpt>
      <trkpt lat="46.70099" lon="-1.02595">
        <ele>79</ele>
        <time>2024-01-09T19:18:45Z</time>
      </trkpt>
      <trkpt lat="46.70141" lon="-1.02598">
        <ele>78</ele>
        <time>2024-01-09T19:18:52Z</time>
      </trkpt>
      <trkpt lat="46.70174" lon="-1.02606">
        <ele>78</ele>
        <time>2024-01-09T19:18:58Z</time>
      </trkpt>
      <trkpt lat="46.70199" lon="-1.02615">
        <ele>77</ele>
        <time>2024-01-09T19:19:03Z</time>
      </trkpt>
      <trkpt lat="46.70246" lon="-1.02641">
        <ele>76</ele>
        <time>2024-01-09T19:19:12Z</time>
      </trkpt>
      <trkpt lat="46.70301" lon="-1.0268">
        <ele>76</ele>
        <time>2024-01-09T19:19:23Z</time>
      </trkpt>
      <trkpt lat="46.70358" lon="-1.02728">
        <ele>77</ele>
        <time>2024-01-09T19:19:34Z</time>
      </trkpt>
      <trkpt lat="46.7039" lon="-1.02751">
        <ele>78</ele>
        <time>2024-01-09T19:19:41Z</time>
      </trkpt>
      <trkpt lat="46.70429" lon="-1.02772">
        <ele>78</ele>
        <time>2024-01-09T19:19:48Z</time>
      </trkpt>
      <trkpt lat="46.70494" lon="-1.0278">
        <ele>74</ele>
        <time>2024-01-09T19:20:00Z</time>
      </trkpt>
      <trkpt lat="46.70515" lon="-1.02792">
        <ele>73</ele>
        <time>2024-01-09T19:20:04Z</time>
      </trkpt>
      <trkpt lat="46.70526" lon="-1.02801">
        <ele>73</ele>
        <time>2024-01-09T19:20:06Z</time>
      </trkpt>
      <trkpt lat="46.70565" lon="-1.02864">
        <ele>72</ele>
        <time>2024-01-09T19:20:16Z</time>
      </trkpt>
      <trkpt lat="46.70576" lon="-1.02874">
        <ele>72</ele>
        <time>2024-01-09T19:20:19Z</time>
      </trkpt>
      <trkpt lat="46.70658" lon="-1.02917">
        <ele>73</ele>
        <time>2024-01-09T19:20:34Z</time>
      </trkpt>
      <trkpt lat="46.70713" lon="-1.0295">
        <ele>74</ele>
        <time>2024-01-09T19:20:45Z</time>
      </trkpt>
      <trkpt lat="46.70797" lon="-1.03038">
        <ele>76</ele>
        <time>2024-01-09T19:21:03Z</time>
      </trkpt>
      <trkpt lat="46.70827" lon="-1.03071">
        <ele>78</ele>
        <time>2024-01-09T19:21:10Z</time>
      </trkpt>
      <trkpt lat="46.70876" lon="-1.03161">
        <ele>78</ele>
        <time>2024-01-09T19:21:24Z</time>
      </trkpt>
      <trkpt lat="46.70912" lon="-1.03229">
        <ele>79</ele>
        <time>2024-01-09T19:21:34Z</time>
      </trkpt>
      <trkpt lat="46.70925" lon="-1.03248">
        <ele>79</ele>
        <time>2024-01-09T19:21:38Z</time>
      </trkpt>
      <trkpt lat="46.70941" lon="-1.03262">
        <ele>80</ele>
        <time>2024-01-09T19:21:41Z</time>
      </trkpt>
      <trkpt lat="46.71009" lon="-1.03314">
        <ele>80</ele>
        <time>2024-01-09T19:21:54Z</time>
      </trkpt>
      <trkpt lat="46.71031" lon="-1.03336">
        <ele>80</ele>
        <time>2024-01-09T19:21:59Z</time>
      </trkpt>
      <trkpt lat="46.7104" lon="-1.03348">
        <ele>80</ele>
        <time>2024-01-09T19:22:01Z</time>
      </trkpt>
      <trkpt lat="46.71087" lon="-1.03426">
        <ele>79</ele>
        <time>2024-01-09T19:22:14Z</time>
      </trkpt>
      <trkpt lat="46.711" lon="-1.03444">
        <ele>79</ele>
        <time>2024-01-09T19:22:17Z</time>
      </trkpt>
      <trkpt lat="46.71147" lon="-1.03501">
        <ele>79</ele>
        <time>2024-01-09T19:22:28Z</time>
      </trkpt>
      <trkpt lat="46.71287" lon="-1.03682">
        <ele>79</ele>
        <time>2024-01-09T19:23:01Z</time>
      </trkpt>
      <trkpt lat="46.71301" lon="-1.03702">
        <ele>79</ele>
        <time>2024-01-09T19:23:05Z</time>
      </trkpt>
      <trkpt lat="46.71391" lon="-1.03849">
        <ele>76</ele>
        <time>2024-01-09T19:23:29Z</time>
      </trkpt>
      <trkpt lat="46.71404" lon="-1.03874">
        <ele>76</ele>
        <time>2024-01-09T19:23:33Z</time>
      </trkpt>
      <trkpt lat="46.71415" lon="-1.03917">
        <ele>75</ele>
        <time>2024-01-09T19:23:38Z</time>
      </trkpt>
      <trkpt lat="46.71439" lon="-1.04015">
        <ele>76</ele>
        <time>2024-01-09T19:23:51Z</time>
      </trkpt>
      <trkpt lat="46.71462" lon="-1.0403">
        <ele>76</ele>
        <time>2024-01-09T19:23:56Z</time>
      </trkpt>
      <trkpt lat="46.71477" lon="-1.04036">
        <ele>77</ele>
        <time>2024-01-09T19:23:58Z</time>
      </trkpt>
      <trkpt lat="46.71516" lon="-1.04043">
        <ele>78</ele>
        <time>2024-01-09T19:24:05Z</time>
      </trkpt>
      <trkpt lat="46.71526" lon="-1.04051">
        <ele>78</ele>
        <time>2024-01-09T19:24:07Z</time>
      </trkpt>
      <trkpt lat="46.7153" lon="-1.0406">
        <ele>79</ele>
        <time>2024-01-09T19:24:09Z</time>
      </trkpt>
      <trkpt lat="46.71536" lon="-1.04079">
        <ele>79</ele>
        <time>2024-01-09T19:24:11Z</time>
      </trkpt>
      <trkpt lat="46.71545" lon="-1.0413">
        <ele>80</ele>
        <time>2024-01-09T19:24:18Z</time>
      </trkpt>
      <trkpt lat="46.71553" lon="-1.04151">
        <ele>80</ele>
        <time>2024-01-09T19:24:21Z</time>
      </trkpt>
      <trkpt lat="46.7156" lon="-1.04159">
        <ele>80</ele>
        <time>2024-01-09T19:24:22Z</time>
      </trkpt>
      <trkpt lat="46.71569" lon="-1.04164">
        <ele>81</ele>
        <time>2024-01-09T19:24:24Z</time>
      </trkpt>
      <trkpt lat="46.71668" lon="-1.04193">
        <ele>82</ele>
        <time>2024-01-09T19:24:42Z</time>
      </trkpt>
      <trkpt lat="46.71719" lon="-1.0419">
        <ele>81</ele>
        <time>2024-01-09T19:24:51Z</time>
      </trkpt>
      <trkpt lat="46.71766" lon="-1.04194">
        <ele>81</ele>
        <time>2024-01-09T19:24:59Z</time>
      </trkpt>
      <trkpt lat="46.71773" lon="-1.042">
        <ele>81</ele>
        <time>2024-01-09T19:25:01Z</time>
      </trkpt>
      <trkpt lat="46.71798" lon="-1.04237">
        <ele>80</ele>
        <time>2024-01-09T19:25:07Z</time>
      </trkpt>
      <trkpt lat="46.7194" lon="-1.04422">
        <ele>78</ele>
        <time>2024-01-09T19:25:41Z</time>
      </trkpt>
      <trkpt lat="46.72175" lon="-1.04706">
        <ele>76</ele>
        <time>2024-01-09T19:26:35Z</time>
      </trkpt>
      <trkpt lat="46.72186" lon="-1.04726">
        <ele>75</ele>
        <time>2024-01-09T19:26:38Z</time>
      </trkpt>
      <trkpt lat="46.7221" lon="-1.04778">
        <ele>75</ele>
        <time>2024-01-09T19:26:46Z</time>
      </trkpt>
      <trkpt lat="46.72228" lon="-1.04804">
        <ele>74</ele>
        <time>2024-01-09T19:26:51Z</time>
      </trkpt>
      <trkpt lat="46.72354" lon="-1.04949">
        <ele>72</ele>
        <time>2024-01-09T19:27:19Z</time>
      </trkpt>
      <trkpt lat="46.72364" lon="-1.04958">
        <ele>72</ele>
        <time>2024-01-09T19:27:21Z</time>
      </trkpt>
      <trkpt lat="46.72383" lon="-1.04966">
        <ele>72</ele>
        <time>2024-01-09T19:27:25Z</time>
      </trkpt>
      <trkpt lat="46.72409" lon="-1.04963">
        <ele>72</ele>
        <time>2024-01-09T19:27:29Z</time>
      </trkpt>
      <trkpt lat="46.72425" lon="-1.04955">
        <ele>73</ele>
        <time>2024-01-09T19:27:32Z</time>
      </trkpt>
      <trkpt lat="46.72753" lon="-1.04757">
        <ele>77</ele>
        <time>2024-01-09T19:28:36Z</time>
      </trkpt>
      <trkpt lat="46.72806" lon="-1.04729">
        <ele>77</ele>
        <time>2024-01-09T19:28:46Z</time>
      </trkpt>
      <trkpt lat="46.72936" lon="-1.04666">
        <ele>78</ele>
        <time>2024-01-09T19:29:10Z</time>
      </trkpt>
      <trkpt lat="46.72972" lon="-1.0465">
        <ele>78</ele>
        <time>2024-01-09T19:29:17Z</time>
      </trkpt>
      <trkpt lat="46.73093" lon="-1.04614">
        <ele>78</ele>
        <time>2024-01-09T19:29:39Z</time>
      </trkpt>
      <trkpt lat="46.73137" lon="-1.04588">
        <ele>79</ele>
        <time>2024-01-09T19:29:47Z</time>
      </trkpt>
      <trkpt lat="46.73165" lon="-1.04577">
        <ele>80</ele>
        <time>2024-01-09T19:29:52Z</time>
      </trkpt>
      <trkpt lat="46.7319" lon="-1.04569">
        <ele>80</ele>
        <time>2024-01-09T19:29:57Z</time>
      </trkpt>
      <trkpt lat="46.73258" lon="-1.04569">
        <ele>78</ele>
        <time>2024-01-09T19:30:09Z</time>
      </trkpt>
      <trkpt lat="46.73325" lon="-1.04564">
        <ele>77</ele>
        <time>2024-01-09T19:30:21Z</time>
      </trkpt>
      <trkpt lat="46.73354" lon="-1.04568">
        <ele>76</ele>
        <time>2024-01-09T19:30:26Z</time>
      </trkpt>
      <trkpt lat="46.73384" lon="-1.04584">
        <ele>76</ele>
        <time>2024-01-09T19:30:32Z</time>
      </trkpt>
      <trkpt lat="46.73435" lon="-1.04619">
        <ele>74</ele>
        <time>2024-01-09T19:30:42Z</time>
      </trkpt>
      <trkpt lat="46.73499" lon="-1.0465">
        <ele>74</ele>
        <time>2024-01-09T19:30:54Z</time>
      </trkpt>
      <trkpt lat="46.73519" lon="-1.04655">
        <ele>73</ele>
        <time>2024-01-09T19:30:57Z</time>
      </trkpt>
      <trkpt lat="46.73528" lon="-1.04655">
        <ele>73</ele>
        <time>2024-01-09T19:30:59Z</time>
      </trkpt>
      <trkpt lat="46.73547" lon="-1.04651">
        <ele>72</ele>
        <time>2024-01-09T19:31:02Z</time>
      </trkpt>
      <trkpt lat="46.73601" lon="-1.04634">
        <ele>70</ele>
        <time>2024-01-09T19:31:12Z</time>
      </trkpt>
      <trkpt lat="46.73618" lon="-1.04632">
        <ele>70</ele>
        <time>2024-01-09T19:31:15Z</time>
      </trkpt>
      <trkpt lat="46.73635" lon="-1.04633">
        <ele>69</ele>
        <time>2024-01-09T19:31:18Z</time>
      </trkpt>
      <trkpt lat="46.73705" lon="-1.04643">
        <ele>66</ele>
        <time>2024-01-09T19:31:31Z</time>
      </trkpt>
      <trkpt lat="46.73736" lon="-1.04639">
        <ele>65</ele>
        <time>2024-01-09T19:31:36Z</time>
      </trkpt>
      <trkpt lat="46.73772" lon="-1.04631">
        <ele>65</ele>
        <time>2024-01-09T19:31:43Z</time>
      </trkpt>
      <trkpt lat="46.73819" lon="-1.04626">
        <ele>66</ele>
        <time>2024-01-09T19:31:51Z</time>
      </trkpt>
      <trkpt lat="46.73918" lon="-1.04631">
        <ele>69</ele>
        <time>2024-01-09T19:32:09Z</time>
      </trkpt>
      <trkpt lat="46.73968" lon="-1.04627">
        <ele>71</ele>
        <time>2024-01-09T19:32:18Z</time>
      </trkpt>
      <trkpt lat="46.74027" lon="-1.04618">
        <ele>73</ele>
        <time>2024-01-09T19:32:28Z</time>
      </trkpt>
      <trkpt lat="46.74051" lon="-1.04612">
        <ele>73</ele>
        <time>2024-01-09T19:32:33Z</time>
      </trkpt>
      <trkpt lat="46.7415" lon="-1.04569">
        <ele>77</ele>
        <time>2024-01-09T19:32:51Z</time>
      </trkpt>
      <trkpt lat="46.74179" lon="-1.04559">
        <ele>78</ele>
        <time>2024-01-09T19:32:56Z</time>
      </trkpt>
      <trkpt lat="46.74339" lon="-1.04548">
        <ele>80</ele>
        <time>2024-01-09T19:33:25Z</time>
      </trkpt>
      <trkpt lat="46.74405" lon="-1.04541">
        <ele>79</ele>
        <time>2024-01-09T19:33:36Z</time>
      </trkpt>
      <trkpt lat="46.74429" lon="-1.04541">
        <ele>79</ele>
        <time>2024-01-09T19:33:41Z</time>
      </trkpt>
      <trkpt lat="46.74471" lon="-1.04549">
        <ele>79</ele>
        <time>2024-01-09T19:33:48Z</time>
      </trkpt>
      <trkpt lat="46.74482" lon="-1.04548">
        <ele>80</ele>
        <time>2024-01-09T19:33:50Z</time>
      </trkpt>
      <trkpt lat="46.74501" lon="-1.0454">
        <ele>80</ele>
        <time>2024-01-09T19:33:54Z</time>
      </trkpt>
      <trkpt lat="46.74534" lon="-1.0451">
        <ele>80</ele>
        <time>2024-01-09T19:34:01Z</time>
      </trkpt>
      <trkpt lat="46.74546" lon="-1.04503">
        <ele>81</ele>
        <time>2024-01-09T19:34:03Z</time>
      </trkpt>
      <trkpt lat="46.74564" lon="-1.04502">
        <ele>81</ele>
        <time>2024-01-09T19:34:06Z</time>
      </trkpt>
      <trkpt lat="46.74625" lon="-1.04522">
        <ele>80</ele>
        <time>2024-01-09T19:34:17Z</time>
      </trkpt>
      <trkpt lat="46.74643" lon="-1.04526">
        <ele>79</ele>
        <time>2024-01-09T19:34:21Z</time>
      </trkpt>
      <trkpt lat="46.74656" lon="-1.04525">
        <ele>79</ele>
        <time>2024-01-09T19:34:23Z</time>
      </trkpt>
      <trkpt lat="46.74688" lon="-1.04514">
        <ele>78</ele>
        <time>2024-01-09T19:34:29Z</time>
      </trkpt>
      <trkpt lat="46.74837" lon="-1.04443">
        <ele>77</ele>
        <time>2024-01-09T19:34:57Z</time>
      </trkpt>
      <trkpt lat="46.74939" lon="-1.04393">
        <ele>82</ele>
        <time>2024-01-09T19:35:16Z</time>
      </trkpt>
      <trkpt lat="46.7495" lon="-1.04391">
        <ele>82</ele>
        <time>2024-01-09T19:35:18Z</time>
      </trkpt>
      <trkpt lat="46.74961" lon="-1.04393">
        <ele>83</ele>
        <time>2024-01-09T19:35:20Z</time>
      </trkpt>
      <trkpt lat="46.74977" lon="-1.04405">
        <ele>84</ele>
        <time>2024-01-09T19:35:23Z</time>
      </trkpt>
      <trkpt lat="46.74995" lon="-1.04423">
        <ele>86</ele>
        <time>2024-01-09T19:35:27Z</time>
      </trkpt>
      <trkpt lat="46.75116" lon="-1.04577">
        <ele>85</ele>
        <time>2024-01-09T19:35:55Z</time>
      </trkpt>
      <trkpt lat="46.75127" lon="-1.04588">
        <ele>85</ele>
        <time>2024-01-09T19:35:58Z</time>
      </trkpt>
      <trkpt lat="46.75153" lon="-1.04603">
        <ele>84</ele>
        <time>2024-01-09T19:36:03Z</time>
      </trkpt>
      <trkpt lat="46.75218" lon="-1.04616">
        <ele>81</ele>
        <time>2024-01-09T19:36:14Z</time>
      </trkpt>
      <trkpt lat="46.7524" lon="-1.04617">
        <ele>80</ele>
        <time>2024-01-09T19:36:18Z</time>
      </trkpt>
      <trkpt lat="46.75294" lon="-1.04608">
        <ele>77</ele>
        <time>2024-01-09T19:36:28Z</time>
      </trkpt>
      <trkpt lat="46.75307" lon="-1.04607">
        <ele>77</ele>
        <time>2024-01-09T19:36:30Z</time>
      </trkpt>
      <trkpt lat="46.75318" lon="-1.0461">
        <ele>76</ele>
        <time>2024-01-09T19:36:32Z</time>
      </trkpt>
      <trkpt lat="46.75337" lon="-1.04623">
        <ele>76</ele>
        <time>2024-01-09T19:36:36Z</time>
      </trkpt>
      <trkpt lat="46.75371" lon="-1.04658">
        <ele>74</ele>
        <time>2024-01-09T19:36:43Z</time>
      </trkpt>
      <trkpt lat="46.7538" lon="-1.04663">
        <ele>74</ele>
        <time>2024-01-09T19:36:45Z</time>
      </trkpt>
      <trkpt lat="46.7539" lon="-1.04664">
        <ele>73</ele>
        <time>2024-01-09T19:36:47Z</time>
      </trkpt>
      <trkpt lat="46.754" lon="-1.04661">
        <ele>72</ele>
        <time>2024-01-09T19:36:49Z</time>
      </trkpt>
      <trkpt lat="46.75411" lon="-1.04654">
        <ele>72</ele>
        <time>2024-01-09T19:36:51Z</time>
      </trkpt>
      <trkpt lat="46.75444" lon="-1.04628">
        <ele>70</ele>
        <time>2024-01-09T19:36:58Z</time>
      </trkpt>
      <trkpt lat="46.75478" lon="-1.04607">
        <ele>69</ele>
        <time>2024-01-09T19:37:04Z</time>
      </trkpt>
      <trkpt lat="46.75562" lon="-1.04573">
        <ele>73</ele>
        <time>2024-01-09T19:37:20Z</time>
      </trkpt>
      <trkpt lat="46.75678" lon="-1.04504">
        <ele>82</ele>
        <time>2024-01-09T19:37:42Z</time>
      </trkpt>
      <trkpt lat="46.75698" lon="-1.04496">
        <ele>83</ele>
        <time>2024-01-09T19:37:46Z</time>
      </trkpt>
      <trkpt lat="46.7572" lon="-1.0449">
        <ele>83</ele>
        <time>2024-01-09T19:37:50Z</time>
      </trkpt>
      <trkpt lat="46.7577" lon="-1.04482">
        <ele>85</ele>
        <time>2024-01-09T19:37:59Z</time>
      </trkpt>
      <trkpt lat="46.75828" lon="-1.04483">
        <ele>86</ele>
        <time>2024-01-09T19:38:09Z</time>
      </trkpt>
      <trkpt lat="46.75998" lon="-1.04488">
        <ele>92</ele>
        <time>2024-01-09T19:38:39Z</time>
      </trkpt>
      <trkpt lat="46.76056" lon="-1.04492">
        <ele>91</ele>
        <time>2024-01-09T19:38:49Z</time>
      </trkpt>
      <trkpt lat="46.76075" lon="-1.04495">
        <ele>91</ele>
        <time>2024-01-09T19:38:53Z</time>
      </trkpt>
      <trkpt lat="46.76095" lon="-1.04505">
        <ele>91</ele>
        <time>2024-01-09T19:38:57Z</time>
      </trkpt>
      <trkpt lat="46.76105" lon="-1.04514">
        <ele>91</ele>
        <time>2024-01-09T19:38:59Z</time>
      </trkpt>
      <trkpt lat="46.76116" lon="-1.04531">
        <ele>91</ele>
        <time>2024-01-09T19:39:02Z</time>
      </trkpt>
      <trkpt lat="46.76134" lon="-1.04567">
        <ele>90</ele>
        <time>2024-01-09T19:39:07Z</time>
      </trkpt>
      <trkpt lat="46.76156" lon="-1.046">
        <ele>90</ele>
        <time>2024-01-09T19:39:13Z</time>
      </trkpt>
      <trkpt lat="46.76175" lon="-1.04622">
        <ele>89</ele>
        <time>2024-01-09T19:39:17Z</time>
      </trkpt>
      <trkpt lat="46.76197" lon="-1.04643">
        <ele>87</ele>
        <time>2024-01-09T19:39:22Z</time>
      </trkpt>
      <trkpt lat="46.76226" lon="-1.04668">
        <ele>86</ele>
        <time>2024-01-09T19:39:28Z</time>
      </trkpt>
      <trkpt lat="46.76238" lon="-1.04676">
        <ele>86</ele>
        <time>2024-01-09T19:39:30Z</time>
      </trkpt>
      <trkpt lat="46.76393" lon="-1.04729">
        <ele>79</ele>
        <time>2024-01-09T19:39:58Z</time>
      </trkpt>
      <trkpt lat="46.7641" lon="-1.04738">
        <ele>77</ele>
        <time>2024-01-09T19:40:01Z</time>
      </trkpt>
      <trkpt lat="46.76437" lon="-1.04758">
        <ele>75</ele>
        <time>2024-01-09T19:40:07Z</time>
      </trkpt>
      <trkpt lat="46.76464" lon="-1.04788">
        <ele>73</ele>
        <time>2024-01-09T19:40:13Z</time>
      </trkpt>
      <trkpt lat="46.76487" lon="-1.04821">
        <ele>71</ele>
        <time>2024-01-09T19:40:19Z</time>
      </trkpt>
      <trkpt lat="46.76495" lon="-1.04837">
        <ele>70</ele>
        <time>2024-01-09T19:40:21Z</time>
      </trkpt>
      <trkpt lat="46.76501" lon="-1.04854">
        <ele>69</ele>
        <time>2024-01-09T19:40:23Z</time>
      </trkpt>
      <trkpt lat="46.76505" lon="-1.04875">
        <ele>70</ele>
        <time>2024-01-09T19:40:26Z</time>
      </trkpt>
      <trkpt lat="46.76511" lon="-1.04936">
        <ele>71</ele>
        <time>2024-01-09T19:40:34Z</time>
      </trkpt>
      <trkpt lat="46.76517" lon="-1.04973">
        <ele>70</ele>
        <time>2024-01-09T19:40:38Z</time>
      </trkpt>
      <trkpt lat="46.76525" lon="-1.0501">
        <ele>70</ele>
        <time>2024-01-09T19:40:43Z</time>
      </trkpt>
      <trkpt lat="46.76532" lon="-1.05032">
        <ele>69</ele>
        <time>2024-01-09T19:40:46Z</time>
      </trkpt>
      <trkpt lat="46.76539" lon="-1.0505">
        <ele>68</ele>
        <time>2024-01-09T19:40:48Z</time>
      </trkpt>
      <trkpt lat="46.76546" lon="-1.05063">
        <ele>68</ele>
        <time>2024-01-09T19:40:50Z</time>
      </trkpt>
      <trkpt lat="46.76551" lon="-1.05069">
        <ele>68</ele>
        <time>2024-01-09T19:40:52Z</time>
      </trkpt>
      <trkpt lat="46.76564" lon="-1.05079">
        <ele>67</ele>
        <time>2024-01-09T19:40:54Z</time>
      </trkpt>
      <trkpt lat="46.76583" lon="-1.05093">
        <ele>67</ele>
        <time>2024-01-09T19:40:58Z</time>
      </trkpt>
      <trkpt lat="46.76607" lon="-1.051">
        <ele>67</ele>
        <time>2024-01-09T19:41:02Z</time>
      </trkpt>
      <trkpt lat="46.76658" lon="-1.05097">
        <ele>68</ele>
        <time>2024-01-09T19:41:11Z</time>
      </trkpt>
      <trkpt lat="46.76674" lon="-1.05104">
        <ele>69</ele>
        <time>2024-01-09T19:41:14Z</time>
      </trkpt>
      <trkpt lat="46.76685" lon="-1.05111">
        <ele>70</ele>
        <time>2024-01-09T19:41:16Z</time>
      </trkpt>
      <trkpt lat="46.76696" lon="-1.05123">
        <ele>71</ele>
        <time>2024-01-09T19:41:19Z</time>
      </trkpt>
      <trkpt lat="46.76764" lon="-1.05206">
        <ele>76</ele>
        <time>2024-01-09T19:41:35Z</time>
      </trkpt>
      <trkpt lat="46.76807" lon="-1.05256">
        <ele>78</ele>
        <time>2024-01-09T19:41:44Z</time>
      </trkpt>
      <trkpt lat="46.76832" lon="-1.05267">
        <ele>80</ele>
        <time>2024-01-09T19:41:49Z</time>
      </trkpt>
      <trkpt lat="46.76858" lon="-1.05272">
        <ele>80</ele>
        <time>2024-01-09T19:41:54Z</time>
      </trkpt>
      <trkpt lat="46.76868" lon="-1.05279">
        <ele>80</ele>
        <time>2024-01-09T19:41:56Z</time>
      </trkpt>
      <trkpt lat="46.76877" lon="-1.05289">
        <ele>80</ele>
        <time>2024-01-09T19:41:58Z</time>
      </trkpt>
      <trkpt lat="46.76884" lon="-1.05301">
        <ele>80</ele>
        <time>2024-01-09T19:42:00Z</time>
      </trkpt>
      <trkpt lat="46.76926" lon="-1.05418">
        <ele>78</ele>
        <time>2024-01-09T19:42:16Z</time>
      </trkpt>
      <trkpt lat="46.76933" lon="-1.05432">
        <ele>77</ele>
        <time>2024-01-09T19:42:18Z</time>
      </trkpt>
      <trkpt lat="46.76962" lon="-1.05477">
        <ele>75</ele>
        <time>2024-01-09T19:42:25Z</time>
      </trkpt>
      <trkpt lat="46.77" lon="-1.05522">
        <ele>73</ele>
        <time>2024-01-09T19:42:34Z</time>
      </trkpt>
      <trkpt lat="46.77044" lon="-1.05559">
        <ele>71</ele>
        <time>2024-01-09T19:42:43Z</time>
      </trkpt>
      <trkpt lat="46.77077" lon="-1.05579">
        <ele>70</ele>
        <time>2024-01-09T19:42:50Z</time>
      </trkpt>
      <trkpt lat="46.77101" lon="-1.0559">
        <ele>71</ele>
        <time>2024-01-09T19:42:54Z</time>
      </trkpt>
      <trkpt lat="46.77122" lon="-1.05597">
        <ele>71</ele>
        <time>2024-01-09T19:42:58Z</time>
      </trkpt>
      <trkpt lat="46.7714" lon="-1.05601">
        <ele>71</ele>
        <time>2024-01-09T19:43:01Z</time>
      </trkpt>
      <trkpt lat="46.77223" lon="-1.05607">
        <ele>72</ele>
        <time>2024-01-09T19:43:16Z</time>
      </trkpt>
      <trkpt lat="46.77244" lon="-1.05603">
        <ele>72</ele>
        <time>2024-01-09T19:43:20Z</time>
      </trkpt>
      <trkpt lat="46.77259" lon="-1.05594">
        <ele>72</ele>
        <time>2024-01-09T19:43:22Z</time>
      </trkpt>
      <trkpt lat="46.77293" lon="-1.05568">
        <ele>70</ele>
        <time>2024-01-09T19:43:29Z</time>
      </trkpt>
      <trkpt lat="46.77337" lon="-1.05545">
        <ele>68</ele>
        <time>2024-01-09T19:43:38Z</time>
      </trkpt>
      <trkpt lat="46.77356" lon="-1.05539">
        <ele>67</ele>
        <time>2024-01-09T19:43:41Z</time>
      </trkpt>
      <trkpt lat="46.77417" lon="-1.05525">
        <ele>63</ele>
        <time>2024-01-09T19:43:52Z</time>
      </trkpt>
      <trkpt lat="46.77433" lon="-1.05525">
        <ele>63</ele>
        <time>2024-01-09T19:43:55Z</time>
      </trkpt>
      <trkpt lat="46.77444" lon="-1.05529">
        <ele>63</ele>
        <time>2024-01-09T19:43:57Z</time>
      </trkpt>
      <trkpt lat="46.77474" lon="-1.05548">
        <ele>61</ele>
        <time>2024-01-09T19:44:03Z</time>
      </trkpt>
      <trkpt lat="46.77481" lon="-1.05549">
        <ele>61</ele>
        <time>2024-01-09T19:44:04Z</time>
      </trkpt>
      <trkpt lat="46.77487" lon="-1.05568">
        <ele>60</ele>
        <time>2024-01-09T19:44:07Z</time>
      </trkpt>
      <trkpt lat="46.77496" lon="-1.05584">
        <ele>60</ele>
        <time>2024-01-09T19:44:09Z</time>
      </trkpt>
      <trkpt lat="46.77515" lon="-1.05622">
        <ele>60</ele>
        <time>2024-01-09T19:44:15Z</time>
      </trkpt>
      <trkpt lat="46.77536" lon="-1.05672">
        <ele>60</ele>
        <time>2024-01-09T19:44:22Z</time>
      </trkpt>
      <trkpt lat="46.77567" lon="-1.05754">
        <ele>59</ele>
        <time>2024-01-09T19:44:33Z</time>
      </trkpt>
      <trkpt lat="46.77571" lon="-1.05777">
        <ele>60</ele>
        <time>2024-01-09T19:44:36Z</time>
      </trkpt>
      <trkpt lat="46.77573" lon="-1.05802">
        <ele>60</ele>
        <time>2024-01-09T19:44:39Z</time>
      </trkpt>
      <trkpt lat="46.7757" lon="-1.05876">
        <ele>63</ele>
        <time>2024-01-09T19:44:48Z</time>
      </trkpt>
      <trkpt lat="46.77572" lon="-1.05918">
        <ele>64</ele>
        <time>2024-01-09T19:44:54Z</time>
      </trkpt>
      <trkpt lat="46.77578" lon="-1.05946">
        <ele>65</ele>
        <time>2024-01-09T19:44:57Z</time>
      </trkpt>
      <trkpt lat="46.77582" lon="-1.05958">
        <ele>65</ele>
        <time>2024-01-09T19:44:59Z</time>
      </trkpt>
      <trkpt lat="46.77596" lon="-1.05988">
        <ele>66</ele>
        <time>2024-01-09T19:45:03Z</time>
      </trkpt>
      <trkpt lat="46.77604" lon="-1.06001">
        <ele>66</ele>
        <time>2024-01-09T19:45:05Z</time>
      </trkpt>
      <trkpt lat="46.7762" lon="-1.0602">
        <ele>66</ele>
        <time>2024-01-09T19:45:09Z</time>
      </trkpt>
      <trkpt lat="46.77634" lon="-1.06032">
        <ele>66</ele>
        <time>2024-01-09T19:45:12Z</time>
      </trkpt>
      <trkpt lat="46.77652" lon="-1.06041">
        <ele>66</ele>
        <time>2024-01-09T19:45:15Z</time>
      </trkpt>
      <trkpt lat="46.77655" lon="-1.06033">
        <ele>65</ele>
        <time>2024-01-09T19:45:16Z</time>
      </trkpt>
      <trkpt lat="46.77662" lon="-1.06029">
        <ele>65</ele>
        <time>2024-01-09T19:45:18Z</time>
      </trkpt>
      <trkpt lat="46.77668" lon="-1.06031">
        <ele>65</ele>
        <time>2024-01-09T19:45:19Z</time>
      </trkpt>
      <trkpt lat="46.77673" lon="-1.06039">
        <ele>65</ele>
        <time>2024-01-09T19:45:20Z</time>
      </trkpt>
      <trkpt lat="46.77673" lon="-1.06048">
        <ele>66</ele>
        <time>2024-01-09T19:45:21Z</time>
      </trkpt>
      <trkpt lat="46.7767" lon="-1.06055">
        <ele>67</ele>
        <time>2024-01-09T19:45:22Z</time>
      </trkpt>
      <trkpt lat="46.77665" lon="-1.0606">
        <ele>67</ele>
        <time>2024-01-09T19:45:23Z</time>
      </trkpt>
      <trkpt lat="46.77658" lon="-1.06059">
        <ele>67</ele>
        <time>2024-01-09T19:45:25Z</time>
      </trkpt>
      <trkpt lat="46.77642" lon="-1.06132">
        <ele>73</ele>
        <time>2024-01-09T19:45:34Z</time>
      </trkpt>
      <trkpt lat="46.77641" lon="-1.06149">
        <ele>74</ele>
        <time>2024-01-09T19:45:36Z</time>
      </trkpt>
      <trkpt lat="46.77634" lon="-1.06148">
        <ele>74</ele>
        <time>2024-01-09T19:45:37Z</time>
      </trkpt>
      <trkpt lat="46.77638" lon="-1.06179">
        <ele>76</ele>
        <time>2024-01-09T19:45:41Z</time>
      </trkpt>
      <trkpt lat="46.77654" lon="-1.06265">
        <ele>80</ele>
        <time>2024-01-09T19:45:52Z</time>
      </trkpt>
      <trkpt lat="46.77665" lon="-1.06302">
        <ele>81</ele>
        <time>2024-01-09T19:45:57Z</time>
      </trkpt>
      <trkpt lat="46.77705" lon="-1.0644">
        <ele>89</ele>
        <time>2024-01-09T19:46:15Z</time>
      </trkpt>
      <trkpt lat="46.77712" lon="-1.06434">
        <ele>89</ele>
        <time>2024-01-09T19:46:16Z</time>
      </trkpt>
      <trkpt lat="46.77717" lon="-1.06445">
        <ele>90</ele>
        <time>2024-01-09T19:46:18Z</time>
      </trkpt>
      <trkpt lat="46.77724" lon="-1.06445">
        <ele>91</ele>
        <time>2024-01-09T19:46:19Z</time>
      </trkpt>
      <trkpt lat="46.77731" lon="-1.06452">
        <ele>91</ele>
        <time>2024-01-09T19:46:21Z</time>
      </trkpt>
      <trkpt lat="46.77732" lon="-1.06457">
        <ele>91</ele>
        <time>2024-01-09T19:46:21Z</time>
      </trkpt>
      <trkpt lat="46.77741" lon="-1.06454">
        <ele>92</ele>
        <time>2024-01-09T19:46:23Z</time>
      </trkpt>
      <trkpt lat="46.77765" lon="-1.06437">
        <ele>93</ele>
        <time>2024-01-09T19:46:28Z</time>
      </trkpt>
      <trkpt lat="46.77815" lon="-1.06378">
        <ele>94</ele>
        <time>2024-01-09T19:46:39Z</time>
      </trkpt>
      <trkpt lat="46.77852" lon="-1.06313">
        <ele>94</ele>
        <time>2024-01-09T19:46:50Z</time>
      </trkpt>
      <trkpt lat="46.77863" lon="-1.06297">
        <ele>94</ele>
        <time>2024-01-09T19:46:52Z</time>
      </trkpt>
      <trkpt lat="46.77888" lon="-1.06283">
        <ele>95</ele>
        <time>2024-01-09T19:46:57Z</time>
      </trkpt>
      <trkpt lat="46.77952" lon="-1.06289">
        <ele>97</ele>
        <time>2024-01-09T19:47:09Z</time>
      </trkpt>
      <trkpt lat="46.78005" lon="-1.06265">
        <ele>97</ele>
        <time>2024-01-09T19:47:18Z</time>
      </trkpt>
      <trkpt lat="46.78023" lon="-1.06254">
        <ele>97</ele>
        <time>2024-01-09T19:47:22Z</time>
      </trkpt>
      <trkpt lat="46.78069" lon="-1.06218">
        <ele>97</ele>
        <time>2024-01-09T19:47:31Z</time>
      </trkpt>
      <trkpt lat="46.7809" lon="-1.06204">
        <ele>97</ele>
        <time>2024-01-09T19:47:35Z</time>
      </trkpt>
      <trkpt lat="46.7815" lon="-1.06186">
        <ele>99</ele>
        <time>2024-01-09T19:47:46Z</time>
      </trkpt>
      <trkpt lat="46.78163" lon="-1.06179">
        <ele>100</ele>
        <time>2024-01-09T19:47:49Z</time>
      </trkpt>
      <trkpt lat="46.78314" lon="-1.06052">
        <ele>99</ele>
        <time>2024-01-09T19:48:20Z</time>
      </trkpt>
      <trkpt lat="46.7833" lon="-1.06034">
        <ele>99</ele>
        <time>2024-01-09T19:48:23Z</time>
      </trkpt>
      <trkpt lat="46.78452" lon="-1.05873">
        <ele>103</ele>
        <time>2024-01-09T19:48:53Z</time>
      </trkpt>
      <trkpt lat="46.78472" lon="-1.0585">
        <ele>104</ele>
        <time>2024-01-09T19:48:57Z</time>
      </trkpt>
      <trkpt lat="46.78488" lon="-1.05835">
        <ele>104</ele>
        <time>2024-01-09T19:49:00Z</time>
      </trkpt>
      <trkpt lat="46.78541" lon="-1.05804">
        <ele>106</ele>
        <time>2024-01-09T19:49:11Z</time>
      </trkpt>
      <trkpt lat="46.78694" lon="-1.05725">
        <ele>111</ele>
        <time>2024-01-09T19:49:39Z</time>
      </trkpt>
      <trkpt lat="46.78732" lon="-1.05713">
        <ele>111</ele>
        <time>2024-01-09T19:49:46Z</time>
      </trkpt>
      <trkpt lat="46.78732" lon="-1.05704">
        <ele>111</ele>
        <time>2024-01-09T19:49:47Z</time>
      </trkpt>
      <trkpt lat="46.78734" lon="-1.05696">
        <ele>111</ele>
        <time>2024-01-09T19:49:49Z</time>
      </trkpt>
      <trkpt lat="46.78738" lon="-1.0569">
        <ele>111</ele>
        <time>2024-01-09T19:49:50Z</time>
      </trkpt>
      <trkpt lat="46.78743" lon="-1.05685">
        <ele>111</ele>
        <time>2024-01-09T19:49:51Z</time>
      </trkpt>
      <trkpt lat="46.78749" lon="-1.05683">
        <ele>111</ele>
        <time>2024-01-09T19:49:52Z</time>
      </trkpt>
      <trkpt lat="46.78756" lon="-1.05684">
        <ele>111</ele>
        <time>2024-01-09T19:49:53Z</time>
      </trkpt>
      <trkpt lat="46.78761" lon="-1.05688">
        <ele>110</ele>
        <time>2024-01-09T19:49:54Z</time>
      </trkpt>
      <trkpt lat="46.78766" lon="-1.05694">
        <ele>110</ele>
        <time>2024-01-09T19:49:55Z</time>
      </trkpt>
      <trkpt lat="46.78768" lon="-1.05703">
        <ele>110</ele>
        <time>2024-01-09T19:49:56Z</time>
      </trkpt>
      <trkpt lat="46.78789" lon="-1.05695">
        <ele>109</ele>
        <time>2024-01-09T19:50:00Z</time>
      </trkpt>
      <trkpt lat="46.78853" lon="-1.0567">
        <ele>106</ele>
        <time>2024-01-09T19:50:12Z</time>
      </trkpt>
      <trkpt lat="46.78878" lon="-1.05654">
        <ele>105</ele>
        <time>2024-01-09T19:50:17Z</time>
      </trkpt>
      <trkpt lat="46.7891" lon="-1.05624">
        <ele>104</ele>
        <time>2024-01-09T19:50:24Z</time>
      </trkpt>
      <trkpt lat="46.78929" lon="-1.05601">
        <ele>103</ele>
        <time>2024-01-09T19:50:28Z</time>
      </trkpt>
      <trkpt lat="46.78945" lon="-1.05576">
        <ele>103</ele>
        <time>2024-01-09T19:50:32Z</time>
      </trkpt>
      <trkpt lat="46.79064" lon="-1.05332">
        <ele>99</ele>
        <time>2024-01-09T19:51:09Z</time>
      </trkpt>
      <trkpt lat="46.79086" lon="-1.05295">
        <ele>100</ele>
        <time>2024-01-09T19:51:15Z</time>
      </trkpt>
      <trkpt lat="46.7918" lon="-1.05188">
        <ele>102</ele>
        <time>2024-01-09T19:51:36Z</time>
      </trkpt>
      <trkpt lat="46.79346" lon="-1.04991">
        <ele>102</ele>
        <time>2024-01-09T19:52:14Z</time>
      </trkpt>
      <trkpt lat="46.79399" lon="-1.04937">
        <ele>101</ele>
        <time>2024-01-09T19:52:25Z</time>
      </trkpt>
      <trkpt lat="46.79486" lon="-1.04864">
        <ele>101</ele>
        <time>2024-01-09T19:52:43Z</time>
      </trkpt>
      <trkpt lat="46.79654" lon="-1.04754">
        <ele>101</ele>
        <time>2024-01-09T19:53:16Z</time>
      </trkpt>
      <trkpt lat="46.79754" lon="-1.04692">
        <ele>102</ele>
        <time>2024-01-09T19:53:35Z</time>
      </trkpt>
      <trkpt lat="46.79783" lon="-1.04679">
        <ele>102</ele>
        <time>2024-01-09T19:53:41Z</time>
      </trkpt>
      <trkpt lat="46.7995" lon="-1.04622">
        <ele>104</ele>
        <time>2024-01-09T19:54:11Z</time>
      </trkpt>
      <trkpt lat="46.79971" lon="-1.04612">
        <ele>104</ele>
        <time>2024-01-09T19:54:15Z</time>
      </trkpt>
      <trkpt lat="46.80002" lon="-1.0459">
        <ele>104</ele>
        <time>2024-01-09T19:54:21Z</time>
      </trkpt>
      <trkpt lat="46.80016" lon="-1.04575">
        <ele>105</ele>
        <time>2024-01-09T19:54:24Z</time>
      </trkpt>
      <trkpt lat="46.80029" lon="-1.04557">
        <ele>105</ele>
        <time>2024-01-09T19:54:28Z</time>
      </trkpt>
      <trkpt lat="46.80052" lon="-1.04519">
        <ele>106</ele>
        <time>2024-01-09T19:54:34Z</time>
      </trkpt>
      <trkpt lat="46.80155" lon="-1.04316">
        <ele>105</ele>
        <time>2024-01-09T19:55:04Z</time>
      </trkpt>
      <trkpt lat="46.80184" lon="-1.04252">
        <ele>105</ele>
        <time>2024-01-09T19:55:14Z</time>
      </trkpt>
      <trkpt lat="46.80228" lon="-1.04115">
        <ele>107</ele>
        <time>2024-01-09T19:55:32Z</time>
      </trkpt>
      <trkpt lat="46.80407" lon="-1.03538">
        <ele>109</ele>
        <time>2024-01-09T19:56:49Z</time>
      </trkpt>
      <trkpt lat="46.80433" lon="-1.03468">
        <ele>110</ele>
        <time>2024-01-09T19:56:59Z</time>
      </trkpt>
      <trkpt lat="46.80675" lon="-1.02966">
        <ele>111</ele>
        <time>2024-01-09T19:58:14Z</time>
      </trkpt>
      <trkpt lat="46.80843" lon="-1.02641">
        <ele>115</ele>
        <time>2024-01-09T19:59:03Z</time>
      </trkpt>
      <trkpt lat="46.80882" lon="-1.02535">
        <ele>114</ele>
        <time>2024-01-09T19:59:18Z</time>
      </trkpt>
      <trkpt lat="46.80946" lon="-1.0235">
        <ele>115</ele>
        <time>2024-01-09T19:59:43Z</time>
      </trkpt>
      <trkpt lat="46.80971" lon="-1.02287">
        <ele>115</ele>
        <time>2024-01-09T19:59:52Z</time>
      </trkpt>
      <trkpt lat="46.81054" lon="-1.02117">
        <ele>117</ele>
        <time>2024-01-09T20:00:18Z</time>
      </trkpt>
      <trkpt lat="46.81093" lon="-1.02041">
        <ele>119</ele>
        <time>2024-01-09T20:00:29Z</time>
      </trkpt>
      <trkpt lat="46.81106" lon="-1.02018">
        <ele>119</ele>
        <time>2024-01-09T20:00:33Z</time>
      </trkpt>
      <trkpt lat="46.81117" lon="-1.02005">
        <ele>119</ele>
        <time>2024-01-09T20:00:35Z</time>
      </trkpt>
      <trkpt lat="46.81142" lon="-1.01982">
        <ele>119</ele>
        <time>2024-01-09T20:00:41Z</time>
      </trkpt>
      <trkpt lat="46.81164" lon="-1.0197">
        <ele>120</ele>
        <time>2024-01-09T20:00:45Z</time>
      </trkpt>
      <trkpt lat="46.81176" lon="-1.01966">
        <ele>120</ele>
        <time>2024-01-09T20:00:47Z</time>
      </trkpt>
      <trkpt lat="46.81316" lon="-1.01944">
        <ele>118</ele>
        <time>2024-01-09T20:01:12Z</time>
      </trkpt>
      <trkpt lat="46.81349" lon="-1.01942">
        <ele>117</ele>
        <time>2024-01-09T20:01:18Z</time>
      </trkpt>
      <trkpt lat="46.81365" lon="-1.01945">
        <ele>117</ele>
        <time>2024-01-09T20:01:21Z</time>
      </trkpt>
      <trkpt lat="46.81453" lon="-1.01978">
        <ele>117</ele>
        <time>2024-01-09T20:01:37Z</time>
      </trkpt>
      <trkpt lat="46.81469" lon="-1.01979">
        <ele>117</ele>
        <time>2024-01-09T20:01:40Z</time>
      </trkpt>
      <trkpt lat="46.81483" lon="-1.01977">
        <ele>117</ele>
        <time>2024-01-09T20:01:42Z</time>
      </trkpt>
      <trkpt lat="46.81506" lon="-1.01967">
        <ele>117</ele>
        <time>2024-01-09T20:01:47Z</time>
      </trkpt>
      <trkpt lat="46.81539" lon="-1.01936">
        <ele>116</ele>
        <time>2024-01-09T20:01:54Z</time>
      </trkpt>
      <trkpt lat="46.81719" lon="-1.0174">
        <ele>114</ele>
        <time>2024-01-09T20:02:34Z</time>
      </trkpt>
      <trkpt lat="46.81738" lon="-1.01721">
        <ele>114</ele>
        <time>2024-01-09T20:02:38Z</time>
      </trkpt>
      <trkpt lat="46.81783" lon="-1.01678">
        <ele>114</ele>
        <time>2024-01-09T20:02:47Z</time>
      </trkpt>
      <trkpt lat="46.82172" lon="-1.01403">
        <ele>119</ele>
        <time>2024-01-09T20:04:04Z</time>
      </trkpt>
      <trkpt lat="46.82206" lon="-1.01385">
        <ele>121</ele>
        <time>2024-01-09T20:04:11Z</time>
      </trkpt>
      <trkpt lat="46.826" lon="-1.01214">
        <ele>119</ele>
        <time>2024-01-09T20:05:24Z</time>
      </trkpt>
      <trkpt lat="46.82632" lon="-1.01197">
        <ele>119</ele>
        <time>2024-01-09T20:05:30Z</time>
      </trkpt>
      <trkpt lat="46.8266" lon="-1.0117">
        <ele>118</ele>
        <time>2024-01-09T20:05:36Z</time>
      </trkpt>
      <trkpt lat="46.82859" lon="-1.00936">
        <ele>120</ele>
        <time>2024-01-09T20:06:21Z</time>
      </trkpt>
      <trkpt lat="46.82873" lon="-1.00913">
        <ele>121</ele>
        <time>2024-01-09T20:06:25Z</time>
      </trkpt>
      <trkpt lat="46.82898" lon="-1.00868">
        <ele>121</ele>
        <time>2024-01-09T20:06:32Z</time>
      </trkpt>
      <trkpt lat="46.82972" lon="-1.00722">
        <ele>121</ele>
        <time>2024-01-09T20:06:54Z</time>
      </trkpt>
      <trkpt lat="46.82987" lon="-1.00695">
        <ele>121</ele>
        <time>2024-01-09T20:06:58Z</time>
      </trkpt>
      <trkpt lat="46.83005" lon="-1.00668">
        <ele>121</ele>
        <time>2024-01-09T20:07:03Z</time>
      </trkpt>
      <trkpt lat="46.83025" lon="-1.00646">
        <ele>120</ele>
        <time>2024-01-09T20:07:07Z</time>
      </trkpt>
      <trkpt lat="46.83104" lon="-1.00575">
        <ele>120</ele>
        <time>2024-01-09T20:07:24Z</time>
      </trkpt>
      <trkpt lat="46.83142" lon="-1.00545">
        <ele>121</ele>
        <time>2024-01-09T20:07:32Z</time>
      </trkpt>
      <trkpt lat="46.83178" lon="-1.00524">
        <ele>122</ele>
        <time>2024-01-09T20:07:38Z</time>
      </trkpt>
      <trkpt lat="46.83255" lon="-1.00491">
        <ele>124</ele>
        <time>2024-01-09T20:07:53Z</time>
      </trkpt>
      <trkpt lat="46.83289" lon="-1.00467">
        <ele>125</ele>
        <time>2024-01-09T20:07:59Z</time>
      </trkpt>
      <trkpt lat="46.83304" lon="-1.00453">
        <ele>126</ele>
        <time>2024-01-09T20:08:03Z</time>
      </trkpt>
      <trkpt lat="46.83312" lon="-1.00429">
        <ele>126</ele>
        <time>2024-01-09T20:08:06Z</time>
      </trkpt>
      <trkpt lat="46.83315" lon="-1.00398">
        <ele>126</ele>
        <time>2024-01-09T20:08:10Z</time>
      </trkpt>
      <trkpt lat="46.83313" lon="-1.00376">
        <ele>126</ele>
        <time>2024-01-09T20:08:12Z</time>
      </trkpt>
      <trkpt lat="46.83326" lon="-1.00377">
        <ele>126</ele>
        <time>2024-01-09T20:08:15Z</time>
      </trkpt>
      <trkpt lat="46.83506" lon="-1.00398">
        <ele>127</ele>
        <time>2024-01-09T20:08:47Z</time>
      </trkpt>
      <trkpt lat="46.83613" lon="-1.00403">
        <ele>129</ele>
        <time>2024-01-09T20:09:06Z</time>
      </trkpt>
      <trkpt lat="46.83677" lon="-1.00402">
        <ele>130</ele>
        <time>2024-01-09T20:09:17Z</time>
      </trkpt>
      <trkpt lat="46.8384" lon="-1.00414">
        <ele>127</ele>
        <time>2024-01-09T20:09:46Z</time>
      </trkpt>
      <trkpt lat="46.83855" lon="-1.00414">
        <ele>126</ele>
        <time>2024-01-09T20:09:49Z</time>
      </trkpt>
      <trkpt lat="46.83864" lon="-1.00409">
        <ele>126</ele>
        <time>2024-01-09T20:09:51Z</time>
      </trkpt>
      <trkpt lat="46.83868" lon="-1.0041">
        <ele>126</ele>
        <time>2024-01-09T20:09:51Z</time>
      </trkpt>
      <trkpt lat="46.83871" lon="-1.00413">
        <ele>126</ele>
        <time>2024-01-09T20:09:52Z</time>
      </trkpt>
      <trkpt lat="46.83871" lon="-1.00422">
        <ele>126</ele>
        <time>2024-01-09T20:09:53Z</time>
      </trkpt>
      <trkpt lat="46.83875" lon="-1.00435">
        <ele>125</ele>
        <time>2024-01-09T20:09:55Z</time>
      </trkpt>
      <trkpt lat="46.84435" lon="-1.0048">
        <ele>113</ele>
        <time>2024-01-09T20:11:35Z</time>
      </trkpt>
      <trkpt lat="46.84453" lon="-1.00495">
        <ele>112</ele>
        <time>2024-01-09T20:11:38Z</time>
      </trkpt>
      <trkpt lat="46.84479" lon="-1.00513">
        <ele>112</ele>
        <time>2024-01-09T20:11:43Z</time>
      </trkpt>
      <trkpt lat="46.84484" lon="-1.00514">
        <ele>111</ele>
        <time>2024-01-09T20:11:44Z</time>
      </trkpt>
      <trkpt lat="46.84496" lon="-1.00512">
        <ele>111</ele>
        <time>2024-01-09T20:11:46Z</time>
      </trkpt>
      <trkpt lat="46.84505" lon="-1.005">
        <ele>111</ele>
        <time>2024-01-09T20:11:49Z</time>
      </trkpt>
      <trkpt lat="46.84508" lon="-1.00512">
        <ele>111</ele>
        <time>2024-01-09T20:11:50Z</time>
      </trkpt>
      <trkpt lat="46.84509" lon="-1.00617">
        <ele>111</ele>
        <time>2024-01-09T20:12:03Z</time>
      </trkpt>
      <trkpt lat="46.84507" lon="-1.00671">
        <ele>111</ele>
        <time>2024-01-09T20:12:10Z</time>
      </trkpt>
      <trkpt lat="46.845" lon="-1.0071">
        <ele>110</ele>
        <time>2024-01-09T20:12:14Z</time>
      </trkpt>
      <trkpt lat="46.84497" lon="-1.00735">
        <ele>110</ele>
        <time>2024-01-09T20:12:18Z</time>
      </trkpt>
      <trkpt lat="46.84496" lon="-1.00773">
        <ele>110</ele>
        <time>2024-01-09T20:12:22Z</time>
      </trkpt>
      <trkpt lat="46.84498" lon="-1.00933">
        <ele>109</ele>
        <time>2024-01-09T20:12:42Z</time>
      </trkpt>
      <trkpt lat="46.845" lon="-1.00976">
        <ele>108</ele>
        <time>2024-01-09T20:12:47Z</time>
      </trkpt>
      <trkpt lat="46.84505" lon="-1.01028">
        <ele>108</ele>
        <time>2024-01-09T20:12:53Z</time>
      </trkpt>
      <trkpt lat="46.84525" lon="-1.01177">
        <ele>109</ele>
        <time>2024-01-09T20:13:12Z</time>
      </trkpt>
      <trkpt lat="46.84536" lon="-1.01259">
        <ele>107</ele>
        <time>2024-01-09T20:13:22Z</time>
      </trkpt>
      <trkpt lat="46.84555" lon="-1.01445">
        <ele>109</ele>
        <time>2024-01-09T20:13:45Z</time>
      </trkpt>
      <trkpt lat="46.84559" lon="-1.01467">
        <ele>109</ele>
        <time>2024-01-09T20:13:48Z</time>
      </trkpt>
      <trkpt lat="46.84564" lon="-1.01479">
        <ele>109</ele>
        <time>2024-01-09T20:13:49Z</time>
      </trkpt>
      <trkpt lat="46.84572" lon="-1.01486">
        <ele>109</ele>
        <time>2024-01-09T20:13:51Z</time>
      </trkpt>
      <trkpt lat="46.84581" lon="-1.01496">
        <ele>109</ele>
        <time>2024-01-09T20:13:53Z</time>
      </trkpt>
      <trkpt lat="46.84587" lon="-1.01513">
        <ele>109</ele>
        <time>2024-01-09T20:13:55Z</time>
      </trkpt>
      <trkpt lat="46.84588" lon="-1.01525">
        <ele>109</ele>
        <time>2024-01-09T20:13:57Z</time>
      </trkpt>
      <trkpt lat="46.84657" lon="-1.01541">
        <ele>108</ele>
        <time>2024-01-09T20:14:09Z</time>
      </trkpt>
      <trkpt lat="46.84899" lon="-1.01569">
        <ele>113</ele>
        <time>2024-01-09T20:14:52Z</time>
      </trkpt>
      <trkpt lat="46.84935" lon="-1.01577">
        <ele>114</ele>
        <time>2024-01-09T20:14:59Z</time>
      </trkpt>
      <trkpt lat="46.84985" lon="-1.01596">
        <ele>115</ele>
        <time>2024-01-09T20:15:08Z</time>
      </trkpt>
      <trkpt lat="46.85016" lon="-1.01612">
        <ele>115</ele>
        <time>2024-01-09T20:15:14Z</time>
      </trkpt>
      <trkpt lat="46.85171" lon="-1.01721">
        <ele>112</ele>
        <time>2024-01-09T20:15:45Z</time>
      </trkpt>
      <trkpt lat="46.85222" lon="-1.01748">
        <ele>111</ele>
        <time>2024-01-09T20:15:54Z</time>
      </trkpt>
      <trkpt lat="46.85263" lon="-1.01762">
        <ele>109</ele>
        <time>2024-01-09T20:16:02Z</time>
      </trkpt>
      <trkpt lat="46.85308" lon="-1.01771">
        <ele>107</ele>
        <time>2024-01-09T20:16:10Z</time>
      </trkpt>
      <trkpt lat="46.85356" lon="-1.01773">
        <ele>105</ele>
        <time>2024-01-09T20:16:18Z</time>
      </trkpt>
      <trkpt lat="46.85386" lon="-1.01771">
        <ele>103</ele>
        <time>2024-01-09T20:16:24Z</time>
      </trkpt>
      <trkpt lat="46.85422" lon="-1.01763">
        <ele>102</ele>
        <time>2024-01-09T20:16:30Z</time>
      </trkpt>
      <trkpt lat="46.85466" lon="-1.01748">
        <ele>101</ele>
        <time>2024-01-09T20:16:38Z</time>
      </trkpt>
      <trkpt lat="46.85507" lon="-1.01729">
        <ele>100</ele>
        <time>2024-01-09T20:16:46Z</time>
      </trkpt>
      <trkpt lat="46.85654" lon="-1.01633">
        <ele>104</ele>
        <time>2024-01-09T20:17:14Z</time>
      </trkpt>
      <trkpt lat="46.85676" lon="-1.01612">
        <ele>105</ele>
        <time>2024-01-09T20:17:19Z</time>
      </trkpt>
      <trkpt lat="46.85734" lon="-1.01571">
        <ele>107</ele>
        <time>2024-01-09T20:17:31Z</time>
      </trkpt>
      <trkpt lat="46.85738" lon="-1.01565">
        <ele>107</ele>
        <time>2024-01-09T20:17:32Z</time>
      </trkpt>
      <trkpt lat="46.85744" lon="-1.01548">
        <ele>107</ele>
        <time>2024-01-09T20:17:34Z</time>
      </trkpt>
      <trkpt lat="46.85745" lon="-1.0154">
        <ele>107</ele>
        <time>2024-01-09T20:17:35Z</time>
      </trkpt>
      <trkpt lat="46.85746" lon="-1.01536">
        <ele>107</ele>
        <time>2024-01-09T20:17:35Z</time>
      </trkpt>
      <trkpt lat="46.85752" lon="-1.01532">
        <ele>107</ele>
        <time>2024-01-09T20:17:37Z</time>
      </trkpt>
      <trkpt lat="46.85771" lon="-1.01537">
        <ele>108</ele>
        <time>2024-01-09T20:17:40Z</time>
      </trkpt>
      <trkpt lat="46.85784" lon="-1.01532">
        <ele>108</ele>
        <time>2024-01-09T20:17:42Z</time>
      </trkpt>
      <trkpt lat="46.85817" lon="-1.01502">
        <ele>109</ele>
        <time>2024-01-09T20:17:49Z</time>
      </trkpt>
      <trkpt lat="46.85836" lon="-1.01479">
        <ele>109</ele>
        <time>2024-01-09T20:17:54Z</time>
      </trkpt>
      <trkpt lat="46.85836" lon="-1.01477">
        <ele>109</ele>
        <time>2024-01-09T20:17:54Z</time>
      </trkpt>
      <trkpt lat="46.85841" lon="-1.01471">
        <ele>109</ele>
        <time>2024-01-09T20:17:55Z</time>
      </trkpt>
      <trkpt lat="46.85844" lon="-1.01465">
        <ele>109</ele>
        <time>2024-01-09T20:17:56Z</time>
      </trkpt>
      <trkpt lat="46.85846" lon="-1.01455">
        <ele>109</ele>
        <time>2024-01-09T20:17:57Z</time>
      </trkpt>
      <trkpt lat="46.85843" lon="-1.01442">
        <ele>109</ele>
        <time>2024-01-09T20:17:59Z</time>
      </trkpt>
      <trkpt lat="46.85822" lon="-1.01375">
        <ele>110</ele>
        <time>2024-01-09T20:18:08Z</time>
      </trkpt>
      <trkpt lat="46.85814" lon="-1.01345">
        <ele>110</ele>
        <time>2024-01-09T20:18:12Z</time>
      </trkpt>
      <trkpt lat="46.85805" lon="-1.01296">
        <ele>110</ele>
        <time>2024-01-09T20:18:18Z</time>
      </trkpt>
      <trkpt lat="46.85799" lon="-1.01243">
        <ele>110</ele>
        <time>2024-01-09T20:18:25Z</time>
      </trkpt>
      <trkpt lat="46.85797" lon="-1.01195">
        <ele>110</ele>
        <time>2024-01-09T20:18:30Z</time>
      </trkpt>
      <trkpt lat="46.85793" lon="-1.01187">
        <ele>110</ele>
        <time>2024-01-09T20:18:32Z</time>
      </trkpt>
      <trkpt lat="46.85778" lon="-1.01176">
        <ele>109</ele>
        <time>2024-01-09T20:18:35Z</time>
      </trkpt>
      <trkpt lat="46.85774" lon="-1.01164">
        <ele>109</ele>
        <time>2024-01-09T20:18:36Z</time>
      </trkpt>
      <trkpt lat="46.85773" lon="-1.01149">
        <ele>109</ele>
        <time>2024-01-09T20:18:38Z</time>
      </trkpt>
      <trkpt lat="46.85777" lon="-1.01137">
        <ele>110</ele>
        <time>2024-01-09T20:18:40Z</time>
      </trkpt>
      <trkpt lat="46.8578" lon="-1.01133">
        <ele>110</ele>
        <time>2024-01-09T20:18:40Z</time>
      </trkpt>
      <trkpt lat="46.85792" lon="-1.01128">
        <ele>110</ele>
        <time>2024-01-09T20:18:43Z</time>
      </trkpt>
      <trkpt lat="46.85796" lon="-1.01124">
        <ele>110</ele>
        <time>2024-01-09T20:18:44Z</time>
      </trkpt>
      <trkpt lat="46.85801" lon="-1.01113">
        <ele>110</ele>
        <time>2024-01-09T20:18:45Z</time>
      </trkpt>
      <trkpt lat="46.85809" lon="-1.01063">
        <ele>111</ele>
        <time>2024-01-09T20:18:51Z</time>
      </trkpt>
      <trkpt lat="46.85819" lon="-1.0102">
        <ele>112</ele>
        <time>2024-01-09T20:18:57Z</time>
      </trkpt>
      <trkpt lat="46.85832" lon="-1.00976">
        <ele>112</ele>
        <time>2024-01-09T20:19:03Z</time>
      </trkpt>
      <trkpt lat="46.85834" lon="-1.00975">
        <ele>112</ele>
        <time>2024-01-09T20:19:03Z</time>
      </trkpt>
      <trkpt lat="46.85834" lon="-1.00987">
        <ele>112</ele>
        <time>2024-01-09T20:19:05Z</time>
      </trkpt>
      <trkpt lat="46.85839" lon="-1.00949">
        <ele>113</ele>
        <time>2024-01-09T20:19:09Z</time>
      </trkpt>
      <trkpt lat="46.8584" lon="-1.00934">
        <ele>113</ele>
        <time>2024-01-09T20:19:11Z</time>
      </trkpt>
      <trkpt lat="46.85837" lon="-1.00923">
        <ele>113</ele>
        <time>2024-01-09T20:19:13Z</time>
      </trkpt>
      <trkpt lat="46.85838" lon="-1.00917">
        <ele>113</ele>
        <time>2024-01-09T20:19:13Z</time>
      </trkpt>
      <trkpt lat="46.8584" lon="-1.00911">
        <ele>113</ele>
        <time>2024-01-09T20:19:14Z</time>
      </trkpt>
      <trkpt lat="46.85848" lon="-1.00905">
        <ele>113</ele>
        <time>2024-01-09T20:19:16Z</time>
      </trkpt>
      <trkpt lat="46.85852" lon="-1.00904">
        <ele>113</ele>
        <time>2024-01-09T20:19:16Z</time>
      </trkpt>
      <trkpt lat="46.85859" lon="-1.00908">
        <ele>113</ele>
        <time>2024-01-09T20:19:18Z</time>
      </trkpt>
      <trkpt lat="46.85864" lon="-1.00916">
        <ele>113</ele>
        <time>2024-01-09T20:19:19Z</time>
      </trkpt>
      <trkpt lat="46.85864" lon="-1.00927">
        <ele>113</ele>
        <time>2024-01-09T20:19:20Z</time>
      </trkpt>
      <trkpt lat="46.85869" lon="-1.00937">
        <ele>113</ele>
        <time>2024-01-09T20:19:22Z</time>
      </trkpt>
      <trkpt lat="46.85879" lon="-1.00946">
        <ele>113</ele>
        <time>2024-01-09T20:19:24Z</time>
      </trkpt>
      <trkpt lat="46.85951" lon="-1.00979">
        <ele>113</ele>
        <time>2024-01-09T20:19:37Z</time>
      </trkpt>
      <trkpt lat="46.85956" lon="-1.00964">
        <ele>113</ele>
        <time>2024-01-09T20:19:39Z</time>
      </trkpt>
      <trkpt lat="46.85979" lon="-1.00924">
        <ele>112</ele>
        <time>2024-01-09T20:19:46Z</time>
      </trkpt>
      <trkpt lat="46.85999" lon="-1.00892">
        <ele>112</ele>
        <time>2024-01-09T20:19:51Z</time>
      </trkpt>
      <trkpt lat="46.86071" lon="-1.00794">
        <ele>114</ele>
        <time>2024-01-09T20:20:09Z</time>
      </trkpt>
      <trkpt lat="46.86095" lon="-1.00768">
        <ele>115</ele>
        <time>2024-01-09T20:20:14Z</time>
      </trkpt>
      <trkpt lat="46.86141" lon="-1.00728">
        <ele>116</ele>
        <time>2024-01-09T20:20:23Z</time>
      </trkpt>
      <trkpt lat="46.86183" lon="-1.00705">
        <ele>116</ele>
        <time>2024-01-09T20:20:31Z</time>
      </trkpt>
      <trkpt lat="46.86271" lon="-1.00663">
        <ele>118</ele>
        <time>2024-01-09T20:20:48Z</time>
      </trkpt>
      <trkpt lat="46.86324" lon="-1.00626">
        <ele>119</ele>
        <time>2024-01-09T20:20:58Z</time>
      </trkpt>
      <trkpt lat="46.8633" lon="-1.00639">
        <ele>120</ele>
        <time>2024-01-09T20:21:00Z</time>
      </trkpt>
      <trkpt lat="46.86336" lon="-1.00638">
        <ele>120</ele>
        <time>2024-01-09T20:21:01Z</time>
      </trkpt>
      <trkpt lat="46.86361" lon="-1.0061">
        <ele>120</ele>
        <time>2024-01-09T20:21:07Z</time>
      </trkpt>
    </trkseg>
  </trk>
</gpx>